Time,TemperatureF,DewpointF,PressureIn,WindDirection,WindDirectionDegrees,WindSpeedMPH,WindSpeedGustMPH,Humidity,HourlyPrecipIn,Conditions,Clouds,dailyrainin,SoftwareType,DateUTC
2013-12-04 00:00:00,60.8,57.2,29.01,SSE,158,0.0,0.0,88,0.00,,,0.00,meteobridge,2013-12-04 06:00:00,
2013-12-04 00:02:00,60.8,57.2,29.01,SSE,158,0.0,0.0,88,0.00,,,0.00,meteobridge,2013-12-04 06:02:00,
2013-12-04 00:03:00,60.8,57.2,29.01,SSE,158,0.0,0.0,88,0.00,,,0.00,meteobridge,2013-12-04 06:03:00,
2013-12-04 00:04:00,60.8,57.2,29.01,SSE,158,0.0,0.0,88,0.00,,,0.00,meteobridge,2013-12-04 06:04:00,
2013-12-04 00:08:00,60.6,57.4,29.00,SSW,203,0.0,0.0,89,0.00,,,0.00,meteobridge,2013-12-04 06:08:00,
2013-12-04 00:10:00,60.6,57.7,29.01,South,180,0.0,0.0,90,0.00,,,0.00,meteobridge,2013-12-04 06:10:00,
2013-12-04 00:12:00,60.6,57.4,29.01,South,180,0.0,0.0,89,0.00,,,0.00,meteobridge,2013-12-04 06:12:00,
2013-12-04 00:13:00,60.6,57.7,29.01,South,180,0.0,0.0,90,0.00,,,0.00,meteobridge,2013-12-04 06:13:00,
2013-12-04 00:14:00,60.6,57.4,29.01,South,180,0.0,0.0,89,0.00,,,0.00,meteobridge,2013-12-04 06:14:00,
2013-12-04 00:15:00,60.6,57.7,29.00,South,180,0.0,0.0,90,0.00,,,0.00,meteobridge,2013-12-04 06:15:00,
2013-12-04 00:17:00,60.6,57.7,29.00,SE,135,0.0,0.0,90,0.00,,,0.00,meteobridge,2013-12-04 06:17:00,
2013-12-04 00:18:00,60.6,57.7,29.00,SSW,203,0.0,0.0,90,0.00,,,0.00,meteobridge,2013-12-04 06:18:00,
2013-12-04 00:19:00,60.6,57.7,29.00,SSW,203,0.0,0.0,90,0.00,,,0.00,meteobridge,2013-12-04 06:19:00,
2013-12-04 00:20:00,60.6,57.7,29.00,South,180,0.0,0.7,90,0.00,,,0.00,meteobridge,2013-12-04 06:20:00,
2013-12-04 00:21:00,60.6,57.7,29.00,South,180,0.0,0.7,90,0.00,,,0.00,meteobridge,2013-12-04 06:21:00,
2013-12-04 00:23:00,60.6,57.7,29.00,South,180,0.0,0.0,90,0.00,,,0.00,meteobridge,2013-12-04 06:23:00,
2013-12-04 00:26:00,60.6,57.7,29.00,SSE,158,0.0,0.0,90,0.00,,,0.00,meteobridge,2013-12-04 06:26:00,
2013-12-04 00:27:00,60.6,57.7,29.01,South,180,0.0,0.0,90,0.00,,,0.00,meteobridge,2013-12-04 06:27:00,
2013-12-04 00:29:00,60.6,57.7,29.01,South,180,0.0,0.0,90,0.00,,,0.00,meteobridge,2013-12-04 06:29:00,
2013-12-04 00:32:00,60.6,57.9,29.01,South,180,0.0,0.0,91,0.00,,,0.00,meteobridge,2013-12-04 06:32:00,
2013-12-04 00:34:00,60.4,57.7,29.00,South,180,0.0,0.0,91,0.00,,,0.00,meteobridge,2013-12-04 06:34:00,
2013-12-04 00:35:00,60.4,57.7,29.01,South,180,0.0,0.0,91,0.00,,,0.00,meteobridge,2013-12-04 06:35:00,
2013-12-04 00:37:00,60.4,57.7,29.01,SW,225,0.0,0.0,91,0.00,,,0.00,meteobridge,2013-12-04 06:37:00,
2013-12-04 00:40:00,60.4,57.7,29.00,South,180,0.0,0.0,91,0.00,,,0.00,meteobridge,2013-12-04 06:40:00,
2013-12-04 00:41:00,60.4,57.7,29.00,South,180,0.0,0.0,91,0.00,,,0.00,meteobridge,2013-12-04 06:41:00,
2013-12-04 00:43:00,60.3,57.6,29.00,WNW,293,0.0,0.0,91,0.00,,,0.00,meteobridge,2013-12-04 06:43:00,
2013-12-04 00:45:00,60.3,57.6,29.00,South,180,0.0,0.0,91,0.00,,,0.00,meteobridge,2013-12-04 06:45:00,
2013-12-04 00:47:00,60.3,57.9,29.00,South,180,0.0,0.0,92,0.00,,,0.00,meteobridge,2013-12-04 06:47:00,
2013-12-04 00:49:00,60.3,57.6,29.00,South,180,0.0,0.0,91,0.00,,,0.00,meteobridge,2013-12-04 06:49:00,
2013-12-04 00:52:00,60.1,57.7,29.00,SSE,158,0.0,0.0,92,0.00,,,0.00,meteobridge,2013-12-04 06:52:00,
2013-12-04 00:53:00,60.1,57.7,29.00,South,180,0.0,0.0,92,0.00,,,0.00,meteobridge,2013-12-04 06:53:00,
2013-12-04 00:54:00,60.1,57.7,29.00,South,180,0.0,0.0,92,0.00,,,0.00,meteobridge,2013-12-04 06:54:00,
2013-12-04 00:55:00,60.1,57.7,29.00,South,180,0.0,0.0,92,0.00,,,0.00,meteobridge,2013-12-04 06:55:00,
2013-12-04 00:56:00,60.1,57.7,29.00,South,180,0.0,0.0,92,0.00,,,0.00,meteobridge,2013-12-04 06:56:00,
2013-12-04 00:58:00,60.1,57.7,29.00,SSE,158,0.0,0.0,92,0.00,,,0.00,meteobridge,2013-12-04 06:58:00,
2013-12-04 00:59:00,60.1,57.7,29.00,South,180,0.0,0.0,92,0.00,,,0.00,meteobridge,2013-12-04 06:59:00,
2013-12-04 01:00:00,60.1,57.7,29.00,SSE,158,0.0,0.0,92,0.00,,,0.00,meteobridge,2013-12-04 07:00:00,
2013-12-04 01:02:00,60.1,57.7,29.00,SSE,158,0.0,0.0,92,0.00,,,0.00,meteobridge,2013-12-04 07:02:00,
2013-12-04 01:03:00,60.1,57.7,29.00,SSE,158,0.0,0.0,92,0.00,,,0.00,meteobridge,2013-12-04 07:03:00,
2013-12-04 01:04:00,60.1,57.7,29.00,SSE,158,0.0,0.0,92,0.00,,,0.00,meteobridge,2013-12-04 07:04:00,
2013-12-04 01:05:00,60.1,57.7,29.00,SSE,158,0.0,0.0,92,0.00,,,0.00,meteobridge,2013-12-04 07:05:00,
2013-12-04 01:07:00,60.1,57.7,29.00,SSE,158,0.0,0.0,92,0.00,,,0.00,meteobridge,2013-12-04 07:07:00,
2013-12-04 01:09:00,59.9,57.9,29.00,SSE,158,0.0,0.0,93,0.00,,,0.00,meteobridge,2013-12-04 07:09:00,
2013-12-04 01:10:00,59.9,58.1,29.00,South,180,0.7,0.7,94,0.00,,,0.00,meteobridge,2013-12-04 07:10:00,
2013-12-04 01:11:00,59.9,58.1,29.00,South,180,0.0,0.7,94,0.00,,,0.00,meteobridge,2013-12-04 07:11:00,
2013-12-04 01:12:00,60.1,58.3,29.00,South,180,0.0,0.0,94,0.00,,,0.00,meteobridge,2013-12-04 07:12:00,
2013-12-04 01:13:00,60.1,58.3,29.00,South,180,0.0,0.0,94,0.00,,,0.00,meteobridge,2013-12-04 07:13:00,
2013-12-04 01:15:00,60.1,58.3,29.00,South,180,0.0,0.0,94,0.00,,,0.00,meteobridge,2013-12-04 07:15:00,
2013-12-04 01:17:00,60.1,58.3,29.00,South,180,0.0,0.0,94,0.00,,,0.00,meteobridge,2013-12-04 07:17:00,
2013-12-04 01:18:00,60.1,58.3,29.00,South,180,0.0,0.0,94,0.00,,,0.00,meteobridge,2013-12-04 07:18:00,
2013-12-04 01:19:00,60.1,58.3,29.00,South,180,0.7,0.7,94,0.00,,,0.00,meteobridge,2013-12-04 07:19:00,
2013-12-04 01:21:00,60.1,58.3,29.00,South,180,0.0,0.7,94,0.00,,,0.00,meteobridge,2013-12-04 07:21:00,
2013-12-04 01:22:00,60.1,58.3,29.00,SW,225,0.7,0.7,94,0.00,,,0.00,meteobridge,2013-12-04 07:22:00,
2013-12-04 01:24:00,60.3,58.5,29.00,South,180,0.7,0.7,94,0.00,,,0.00,meteobridge,2013-12-04 07:24:00,
2013-12-04 01:25:00,60.3,58.5,29.00,South,180,0.0,0.7,94,0.00,,,0.00,meteobridge,2013-12-04 07:25:00,
2013-12-04 01:26:00,60.3,58.5,29.00,South,180,0.7,0.7,94,0.00,,,0.00,meteobridge,2013-12-04 07:26:00,
2013-12-04 01:27:00,60.3,58.5,29.00,South,180,0.0,0.7,94,0.00,,,0.00,meteobridge,2013-12-04 07:27:00,
2013-12-04 01:28:00,60.4,58.6,29.00,SSW,203,0.0,0.7,94,0.00,,,0.00,meteobridge,2013-12-04 07:28:00,
2013-12-04 01:30:00,60.4,58.6,29.00,SSW,203,0.0,0.0,94,0.00,,,0.00,meteobridge,2013-12-04 07:30:00,
2013-12-04 01:31:00,60.4,58.6,29.00,SW,225,0.0,0.0,94,0.00,,,0.00,meteobridge,2013-12-04 07:31:00,
2013-12-04 01:32:00,60.4,58.6,29.00,South,180,0.0,0.0,94,0.00,,,0.00,meteobridge,2013-12-04 07:32:00,
2013-12-04 01:33:00,60.4,58.6,29.00,South,180,0.0,0.0,94,0.00,,,0.00,meteobridge,2013-12-04 07:33:00,
2013-12-04 01:34:00,60.4,58.6,29.00,South,180,0.0,0.0,94,0.00,,,0.00,meteobridge,2013-12-04 07:34:00,
2013-12-04 01:36:00,60.6,58.8,29.00,SSE,158,0.0,0.7,94,0.00,,,0.00,meteobridge,2013-12-04 07:36:00,
2013-12-04 01:37:00,60.6,58.8,29.01,South,180,0.7,0.7,94,0.00,,,0.00,meteobridge,2013-12-04 07:37:00,
2013-12-04 01:39:00,60.6,58.8,29.00,South,180,0.0,0.7,94,0.00,,,0.00,meteobridge,2013-12-04 07:39:00,
2013-12-04 01:41:00,60.6,58.8,29.00,South,180,0.0,0.0,94,0.00,,,0.00,meteobridge,2013-12-04 07:41:00,
2013-12-04 01:42:00,60.6,58.6,29.00,SW,225,0.0,0.0,93,0.00,,,0.00,meteobridge,2013-12-04 07:42:00,
2013-12-04 01:45:00,60.6,58.8,29.00,South,180,1.6,1.6,94,0.00,,,0.00,meteobridge,2013-12-04 07:45:00,
2013-12-04 01:46:00,60.6,58.6,29.00,South,180,0.7,1.6,93,0.00,,,0.00,meteobridge,2013-12-04 07:46:00,
2013-12-04 01:47:00,60.6,58.8,29.00,SE,135,0.0,0.7,94,0.00,,,0.00,meteobridge,2013-12-04 07:47:00,
2013-12-04 01:48:00,60.6,58.8,29.00,South,180,0.7,0.7,94,0.00,,,0.00,meteobridge,2013-12-04 07:48:00,
2013-12-04 01:49:00,60.8,59.0,29.00,South,180,0.0,0.7,94,0.00,,,0.00,meteobridge,2013-12-04 07:49:00,
2013-12-04 01:51:00,60.8,59.0,29.00,South,180,0.0,0.0,94,0.00,,,0.00,meteobridge,2013-12-04 07:51:00,
2013-12-04 01:52:00,60.8,59.0,29.01,SSE,158,0.0,0.0,94,0.00,,,0.00,meteobridge,2013-12-04 07:52:00,
2013-12-04 01:53:00,60.8,59.0,29.00,SE,135,0.0,0.0,94,0.00,,,0.00,meteobridge,2013-12-04 07:53:00,
2013-12-04 01:57:00,60.8,59.0,29.01,South,180,0.0,0.0,94,0.00,,,0.00,meteobridge,2013-12-04 07:57:00,
2013-12-04 01:58:00,60.8,59.0,29.01,SE,135,0.7,0.7,94,0.00,,,0.00,meteobridge,2013-12-04 07:58:00,
2013-12-04 01:59:00,60.8,59.0,29.01,South,180,0.0,0.7,94,0.00,,,0.00,meteobridge,2013-12-04 07:59:00,
2013-12-04 02:00:00,60.8,59.0,29.01,South,180,0.0,0.7,94,0.00,,,0.00,meteobridge,2013-12-04 08:00:00,
2013-12-04 02:03:00,60.8,59.0,29.01,South,180,0.0,0.0,94,0.00,,,0.00,meteobridge,2013-12-04 08:03:00,
2013-12-04 02:05:00,60.8,59.0,29.00,South,180,0.0,0.7,94,0.00,,,0.00,meteobridge,2013-12-04 08:05:00,
2013-12-04 02:07:00,60.8,59.0,29.01,SE,135,0.7,0.7,94,0.00,,,0.00,meteobridge,2013-12-04 08:07:00,
2013-12-04 02:08:00,60.8,59.0,29.00,SSW,203,0.7,0.7,94,0.00,,,0.00,meteobridge,2013-12-04 08:08:00,
2013-12-04 02:10:00,60.8,59.0,29.01,South,180,0.0,0.0,94,0.00,,,0.00,meteobridge,2013-12-04 08:10:00,
2013-12-04 02:11:00,60.6,58.8,29.00,SW,225,0.0,0.0,94,0.00,,,0.00,meteobridge,2013-12-04 08:11:00,
2013-12-04 02:12:00,60.6,58.8,29.00,SW,225,0.0,0.0,94,0.00,,,0.00,meteobridge,2013-12-04 08:12:00,
2013-12-04 02:13:00,60.6,59.2,29.01,SW,225,0.0,0.0,95,0.00,,,0.00,meteobridge,2013-12-04 08:13:00,
2013-12-04 02:15:00,60.6,59.2,29.00,South,180,0.0,0.7,95,0.00,,,0.00,meteobridge,2013-12-04 08:15:00,
2013-12-04 02:16:00,60.6,59.2,29.00,South,180,0.0,0.0,95,0.00,,,0.00,meteobridge,2013-12-04 08:16:00,
2013-12-04 02:17:00,60.6,59.2,29.00,South,180,0.0,0.0,95,0.00,,,0.00,meteobridge,2013-12-04 08:17:00,
2013-12-04 02:19:00,60.6,59.2,29.01,South,180,0.0,0.0,95,0.00,,,0.00,meteobridge,2013-12-04 08:19:00,
2013-12-04 02:20:00,60.6,59.2,29.01,South,180,0.0,0.0,95,0.00,,,0.00,meteobridge,2013-12-04 08:20:00,
2013-12-04 02:21:00,60.6,59.2,29.01,South,180,0.0,0.0,95,0.00,,,0.00,meteobridge,2013-12-04 08:21:00,
2013-12-04 02:22:00,60.6,59.2,29.01,South,180,0.0,0.0,95,0.00,,,0.00,meteobridge,2013-12-04 08:22:00,
2013-12-04 02:24:00,60.6,59.2,29.01,South,180,0.0,0.0,95,0.00,,,0.00,meteobridge,2013-12-04 08:24:00,
2013-12-04 02:25:00,60.6,59.2,29.00,South,180,0.7,0.7,95,0.00,,,0.00,meteobridge,2013-12-04 08:25:00,
2013-12-04 02:27:00,60.6,59.2,29.00,South,180,0.7,0.7,95,0.00,,,0.00,meteobridge,2013-12-04 08:27:00,
2013-12-04 02:29:00,60.6,59.2,29.01,South,180,0.0,0.7,95,0.00,,,0.00,meteobridge,2013-12-04 08:29:00,
2013-12-04 02:30:00,60.4,59.0,29.01,SSW,203,0.0,0.0,95,0.00,,,0.00,meteobridge,2013-12-04 08:30:00,
2013-12-04 02:31:00,60.4,59.0,29.01,SSW,203,0.0,0.0,95,0.00,,,0.00,meteobridge,2013-12-04 08:31:00,
2013-12-04 02:32:00,60.4,59.0,29.01,South,180,0.0,0.0,95,0.00,,,0.00,meteobridge,2013-12-04 08:32:00,
2013-12-04 02:33:00,60.4,59.0,29.01,South,180,0.7,0.7,95,0.00,,,0.00,meteobridge,2013-12-04 08:33:00,
2013-12-04 02:34:00,60.4,59.4,29.01,SE,135,0.0,0.7,96,0.00,,,0.00,meteobridge,2013-12-04 08:34:00,
2013-12-04 02:36:00,60.4,59.4,29.01,South,180,0.0,0.0,96,0.00,,,0.00,meteobridge,2013-12-04 08:36:00,
2013-12-04 02:38:00,60.4,59.4,29.01,South,180,0.0,0.7,96,0.00,,,0.00,meteobridge,2013-12-04 08:38:00,
2013-12-04 02:39:00,60.3,59.2,29.01,SSW,203,0.0,0.0,96,0.00,,,0.00,meteobridge,2013-12-04 08:39:00,
2013-12-04 02:40:00,60.3,59.2,29.01,SSW,203,0.0,0.0,96,0.00,,,0.00,meteobridge,2013-12-04 08:40:00,
2013-12-04 02:42:00,60.3,59.2,29.01,South,180,0.0,0.7,96,0.00,,,0.00,meteobridge,2013-12-04 08:42:00,
2013-12-04 02:44:00,60.3,59.4,29.01,South,180,0.0,0.7,97,0.00,,,0.00,meteobridge,2013-12-04 08:44:00,
2013-12-04 02:45:00,60.3,59.4,29.01,South,180,0.0,0.7,97,0.00,,,0.00,meteobridge,2013-12-04 08:45:00,
2013-12-04 02:46:00,60.3,59.4,29.01,South,180,0.7,0.7,97,0.00,,,0.00,meteobridge,2013-12-04 08:46:00,
2013-12-04 02:47:00,60.3,59.4,29.01,South,180,0.0,0.7,97,0.00,,,0.00,meteobridge,2013-12-04 08:47:00,
2013-12-04 02:50:00,60.3,59.4,29.01,SSE,158,0.0,0.7,97,0.00,,,0.00,meteobridge,2013-12-04 08:50:00,
2013-12-04 02:51:00,60.3,59.4,29.01,SE,135,0.0,0.7,97,0.00,,,0.00,meteobridge,2013-12-04 08:51:00,
2013-12-04 02:52:00,60.4,59.9,29.01,SE,135,0.7,0.7,98,0.00,,,0.00,meteobridge,2013-12-04 08:52:00,
2013-12-04 02:54:00,60.4,59.5,29.01,South,180,0.0,0.7,97,0.00,,,0.00,meteobridge,2013-12-04 08:54:00,
2013-12-04 02:56:00,60.4,59.5,29.01,SW,225,0.0,0.0,97,0.00,,,0.00,meteobridge,2013-12-04 08:56:00,
2013-12-04 02:57:00,60.6,59.7,29.01,South,180,0.0,0.7,97,0.00,,,0.00,meteobridge,2013-12-04 08:57:00,
2013-12-04 02:58:00,60.6,59.7,29.01,South,180,0.0,0.7,97,0.00,,,0.00,meteobridge,2013-12-04 08:58:00,
2013-12-04 03:01:00,60.6,59.7,29.01,South,180,0.7,0.7,97,0.00,,,0.00,meteobridge,2013-12-04 09:01:00,
2013-12-04 03:02:00,60.6,59.7,29.01,South,180,0.7,0.7,97,0.00,,,0.00,meteobridge,2013-12-04 09:02:00,
2013-12-04 03:03:00,60.6,59.7,29.01,South,180,0.7,0.7,97,0.00,,,0.00,meteobridge,2013-12-04 09:03:00,
2013-12-04 03:07:00,60.6,59.7,29.01,South,180,0.7,0.7,97,0.00,,,0.00,meteobridge,2013-12-04 09:07:00,
2013-12-04 03:08:00,60.6,59.7,29.01,SW,225,0.7,0.7,97,0.00,,,0.00,meteobridge,2013-12-04 09:08:00,
2013-12-04 03:09:00,60.6,59.7,29.01,SW,225,0.7,0.7,97,0.00,,,0.00,meteobridge,2013-12-04 09:09:00,
2013-12-04 03:10:00,60.6,59.7,29.01,South,180,0.0,0.7,97,0.00,,,0.00,meteobridge,2013-12-04 09:10:00,
2013-12-04 03:12:00,60.4,59.5,29.01,SE,135,0.0,0.7,97,0.00,,,0.00,meteobridge,2013-12-04 09:12:00,
2013-12-04 03:13:00,60.4,59.5,29.01,SE,135,0.0,0.7,97,0.00,,,0.00,meteobridge,2013-12-04 09:13:00,
2013-12-04 03:14:00,60.4,59.5,29.01,SSE,158,0.7,0.7,97,0.00,,,0.00,meteobridge,2013-12-04 09:14:00,
2013-12-04 03:15:00,60.4,59.5,29.01,SSW,203,0.7,0.7,97,0.00,,,0.00,meteobridge,2013-12-04 09:15:00,
2013-12-04 03:17:00,60.4,59.5,29.01,South,180,0.0,0.7,97,0.00,,,0.00,meteobridge,2013-12-04 09:17:00,
2013-12-04 03:18:00,60.4,59.5,29.01,South,180,0.0,0.7,97,0.00,,,0.00,meteobridge,2013-12-04 09:18:00,
2013-12-04 03:19:00,60.4,59.5,29.01,SE,135,0.7,0.7,97,0.00,,,0.00,meteobridge,2013-12-04 09:19:00,
2013-12-04 03:20:00,60.4,59.5,29.01,SE,135,0.7,0.7,97,0.00,,,0.00,meteobridge,2013-12-04 09:20:00,
2013-12-04 03:21:00,60.4,59.5,29.01,South,180,0.0,0.7,97,0.00,,,0.00,meteobridge,2013-12-04 09:21:00,
2013-12-04 03:22:00,60.4,59.5,29.02,South,180,0.7,0.7,97,0.00,,,0.00,meteobridge,2013-12-04 09:22:00,
2013-12-04 03:23:00,60.4,59.5,29.01,South,180,0.7,0.7,97,0.00,,,0.00,meteobridge,2013-12-04 09:23:00,
2013-12-04 03:27:00,60.4,59.4,29.01,South,180,0.0,0.7,96,0.00,,,0.00,meteobridge,2013-12-04 09:27:00,
2013-12-04 03:28:00,60.4,59.4,29.01,SE,135,0.0,0.0,96,0.00,,,0.00,meteobridge,2013-12-04 09:28:00,
2013-12-04 03:31:00,60.3,59.2,29.01,South,180,0.7,0.7,96,0.00,,,0.00,meteobridge,2013-12-04 09:31:00,
2013-12-04 03:33:00,60.3,59.2,29.01,South,180,0.0,0.7,96,0.00,,,0.00,meteobridge,2013-12-04 09:33:00,
2013-12-04 03:34:00,60.3,59.2,29.02,South,180,0.0,0.0,96,0.00,,,0.00,meteobridge,2013-12-04 09:34:00,
2013-12-04 03:36:00,60.3,59.2,29.02,SW,225,0.0,0.7,96,0.00,,,0.00,meteobridge,2013-12-04 09:36:00,
2013-12-04 03:38:00,60.1,59.0,29.02,South,180,0.0,0.0,96,0.00,,,0.00,meteobridge,2013-12-04 09:38:00,
2013-12-04 03:39:00,60.3,59.2,29.02,SE,135,0.0,0.0,96,0.00,,,0.00,meteobridge,2013-12-04 09:39:00,
2013-12-04 03:41:00,60.3,59.2,29.02,South,180,0.0,0.0,96,0.00,,,0.00,meteobridge,2013-12-04 09:41:00,
2013-12-04 03:43:00,60.3,59.2,29.02,SW,225,0.7,0.7,96,0.00,,,0.00,meteobridge,2013-12-04 09:43:00,
2013-12-04 03:45:00,60.3,59.2,29.02,SE,135,0.0,0.7,96,0.00,,,0.00,meteobridge,2013-12-04 09:45:00,
2013-12-04 03:47:00,60.3,59.2,29.02,South,180,0.0,0.7,96,0.00,,,0.00,meteobridge,2013-12-04 09:47:00,
2013-12-04 03:48:00,60.4,59.4,29.02,SW,225,0.7,0.7,96,0.00,,,0.00,meteobridge,2013-12-04 09:48:00,
2013-12-04 03:49:00,60.4,59.4,29.02,SW,225,0.7,0.7,96,0.00,,,0.00,meteobridge,2013-12-04 09:49:00,
2013-12-04 03:50:00,60.4,59.0,29.02,SW,225,0.0,0.7,95,0.00,,,0.00,meteobridge,2013-12-04 09:50:00,
2013-12-04 03:52:00,60.4,59.0,29.02,SSW,203,0.0,0.0,95,0.00,,,0.00,meteobridge,2013-12-04 09:52:00,
2013-12-04 03:53:00,60.3,58.8,29.03,SW,225,0.7,0.7,95,0.00,,,0.00,meteobridge,2013-12-04 09:53:00,
2013-12-04 03:54:00,60.3,58.8,29.03,SW,225,0.0,0.7,95,0.00,,,0.00,meteobridge,2013-12-04 09:54:00,
2013-12-04 03:55:00,60.3,58.8,29.02,SW,225,0.7,0.7,95,0.00,,,0.00,meteobridge,2013-12-04 09:55:00,
2013-12-04 03:57:00,60.3,58.8,29.02,South,180,0.0,0.0,95,0.00,,,0.00,meteobridge,2013-12-04 09:57:00,
2013-12-04 03:58:00,60.3,58.8,29.02,SE,135,0.0,0.0,95,0.00,,,0.00,meteobridge,2013-12-04 09:58:00,
2013-12-04 04:00:00,60.3,58.8,29.02,South,180,0.0,0.0,95,0.00,,,0.00,meteobridge,2013-12-04 10:00:00,
2013-12-04 04:01:00,60.3,58.8,29.02,South,180,0.0,0.0,95,0.00,,,0.00,meteobridge,2013-12-04 10:01:00,
2013-12-04 04:02:00,60.3,58.8,29.01,SSE,158,0.7,0.7,95,0.00,,,0.00,meteobridge,2013-12-04 10:02:00,
2013-12-04 04:04:00,60.3,58.8,29.01,SW,225,0.0,0.7,95,0.00,,,0.00,meteobridge,2013-12-04 10:04:00,
2013-12-04 04:06:00,60.3,58.8,29.02,South,180,0.7,0.7,95,0.00,,,0.00,meteobridge,2013-12-04 10:06:00,
2013-12-04 04:07:00,60.3,58.8,29.02,SE,135,0.0,0.7,95,0.00,,,0.00,meteobridge,2013-12-04 10:07:00,
2013-12-04 04:08:00,60.3,58.8,29.02,SE,135,0.0,0.7,95,0.00,,,0.00,meteobridge,2013-12-04 10:08:00,
2013-12-04 04:10:00,60.3,58.5,29.02,SE,135,0.0,0.7,94,0.00,,,0.00,meteobridge,2013-12-04 10:10:00,
2013-12-04 04:11:00,60.3,58.5,29.02,South,180,0.0,0.7,94,0.00,,,0.00,meteobridge,2013-12-04 10:11:00,
2013-12-04 04:12:00,60.3,58.5,29.02,South,180,0.0,0.7,94,0.00,,,0.00,meteobridge,2013-12-04 10:12:00,
2013-12-04 04:13:00,60.3,58.5,29.02,SE,135,0.0,0.0,94,0.00,,,0.00,meteobridge,2013-12-04 10:13:00,
2013-12-04 04:14:00,60.3,58.5,29.02,SW,225,0.7,0.7,94,0.00,,,0.00,meteobridge,2013-12-04 10:14:00,
2013-12-04 04:16:00,60.3,58.5,29.02,SW,225,0.7,0.7,94,0.00,,,0.00,meteobridge,2013-12-04 10:16:00,
2013-12-04 04:17:00,60.3,58.5,29.02,SW,225,0.7,0.7,94,0.00,,,0.00,meteobridge,2013-12-04 10:17:00,
2013-12-04 04:18:00,60.3,58.5,29.02,SW,225,0.7,0.7,94,0.00,,,0.00,meteobridge,2013-12-04 10:18:00,
2013-12-04 04:19:00,60.3,58.5,29.02,SW,225,0.7,0.7,94,0.00,,,0.00,meteobridge,2013-12-04 10:19:00,
2013-12-04 04:22:00,60.3,58.5,29.02,SW,225,0.7,0.7,94,0.00,,,0.00,meteobridge,2013-12-04 10:22:00,
2013-12-04 04:23:00,60.3,58.5,29.02,South,180,0.0,0.7,94,0.00,,,0.00,meteobridge,2013-12-04 10:23:00,
2013-12-04 04:24:00,60.3,58.5,29.02,South,180,0.0,0.7,94,0.00,,,0.00,meteobridge,2013-12-04 10:24:00,
2013-12-04 04:25:00,60.3,58.5,29.02,South,180,0.0,0.0,94,0.00,,,0.00,meteobridge,2013-12-04 10:25:00,
2013-12-04 04:26:00,60.3,58.5,29.03,South,180,0.0,1.6,94,0.00,,,0.00,meteobridge,2013-12-04 10:26:00,
2013-12-04 04:28:00,60.1,58.3,29.02,South,180,0.0,1.6,94,0.00,,,0.00,meteobridge,2013-12-04 10:28:00,
2013-12-04 04:29:00,60.1,58.3,29.03,SSE,158,0.0,0.7,94,0.00,,,0.00,meteobridge,2013-12-04 10:29:00,
2013-12-04 04:33:00,60.1,58.3,29.03,SW,225,0.7,0.7,94,0.00,,,0.00,meteobridge,2013-12-04 10:33:00,
2013-12-04 04:34:00,60.1,58.3,29.03,SE,135,0.0,0.7,94,0.00,,,0.00,meteobridge,2013-12-04 10:34:00,
2013-12-04 04:35:00,60.1,58.3,29.03,South,180,0.0,0.7,94,0.00,,,0.00,meteobridge,2013-12-04 10:35:00,
2013-12-04 04:38:00,59.9,58.5,29.03,SE,135,0.0,0.0,95,0.00,,,0.00,meteobridge,2013-12-04 10:38:00,
2013-12-04 04:39:00,59.9,58.5,29.03,South,180,0.0,0.0,95,0.00,,,0.00,meteobridge,2013-12-04 10:39:00,
2013-12-04 04:40:00,59.9,58.5,29.02,SE,135,0.0,0.0,95,0.00,,,0.00,meteobridge,2013-12-04 10:40:00,
2013-12-04 04:42:00,59.9,58.5,29.03,SW,225,0.0,0.0,95,0.00,,,0.00,meteobridge,2013-12-04 10:42:00,
2013-12-04 04:43:00,59.9,58.5,29.03,South,180,0.0,0.0,95,0.00,,,0.00,meteobridge,2013-12-04 10:43:00,
2013-12-04 04:46:00,59.7,58.3,29.03,South,180,0.0,0.0,95,0.00,,,0.00,meteobridge,2013-12-04 10:46:00,
2013-12-04 04:48:00,59.7,58.3,29.03,SE,135,0.0,0.0,95,0.00,,,0.00,meteobridge,2013-12-04 10:48:00,
2013-12-04 04:49:00,59.7,58.6,29.03,South,180,0.0,0.0,96,0.00,,,0.00,meteobridge,2013-12-04 10:49:00,
2013-12-04 04:51:00,59.7,58.6,29.03,SW,225,0.0,0.7,96,0.00,,,0.00,meteobridge,2013-12-04 10:51:00,
2013-12-04 04:52:00,59.7,58.6,29.03,SW,225,0.0,0.7,96,0.00,,,0.00,meteobridge,2013-12-04 10:52:00,
2013-12-04 04:53:00,59.7,58.6,29.03,South,180,0.0,0.0,96,0.00,,,0.00,meteobridge,2013-12-04 10:53:00,
2013-12-04 04:54:00,59.7,58.6,29.03,SSE,158,0.0,0.0,96,0.00,,,0.00,meteobridge,2013-12-04 10:54:00,
2013-12-04 04:57:00,59.7,58.6,29.03,SW,225,0.0,0.7,96,0.00,,,0.00,meteobridge,2013-12-04 10:57:00,
2013-12-04 04:58:00,59.7,58.6,29.03,South,180,0.0,0.0,96,0.00,,,0.00,meteobridge,2013-12-04 10:58:00,
2013-12-04 05:00:00,59.7,58.8,29.03,South,180,0.0,0.0,97,0.00,,,0.00,meteobridge,2013-12-04 11:00:00,
2013-12-04 05:02:00,59.5,58.6,29.03,SSW,203,0.0,0.0,97,0.00,,,0.00,meteobridge,2013-12-04 11:02:00,
2013-12-04 05:03:00,59.5,58.6,29.03,SSW,203,0.0,0.0,97,0.00,,,0.00,meteobridge,2013-12-04 11:03:00,
2013-12-04 05:04:00,59.5,58.6,29.03,South,180,0.0,0.0,97,0.00,,,0.00,meteobridge,2013-12-04 11:04:00,
2013-12-04 05:05:00,59.5,58.6,29.03,South,180,0.0,0.0,97,0.00,,,0.00,meteobridge,2013-12-04 11:05:00,
2013-12-04 05:08:00,59.5,58.6,29.03,South,180,0.0,0.0,97,0.00,,,0.00,meteobridge,2013-12-04 11:08:00,
2013-12-04 05:09:00,59.5,58.6,29.03,SE,135,0.0,0.7,97,0.00,,,0.00,meteobridge,2013-12-04 11:09:00,
2013-12-04 05:12:00,59.5,59.0,29.03,South,180,0.0,0.7,98,0.00,,,0.00,meteobridge,2013-12-04 11:12:00,
2013-12-04 05:13:00,59.5,59.0,29.03,SE,135,0.0,0.0,98,0.00,,,0.00,meteobridge,2013-12-04 11:13:00,
2013-12-04 05:14:00,59.5,59.0,29.03,SE,135,0.0,0.0,98,0.00,,,0.00,meteobridge,2013-12-04 11:14:00,
2013-12-04 05:15:00,59.5,59.0,29.03,South,180,0.0,0.0,98,0.00,,,0.00,meteobridge,2013-12-04 11:15:00,
2013-12-04 05:16:00,59.5,59.0,29.04,South,180,0.0,0.0,98,0.00,,,0.00,meteobridge,2013-12-04 11:16:00,
2013-12-04 05:18:00,59.5,59.0,29.03,SSW,203,0.0,0.0,98,0.00,,,0.00,meteobridge,2013-12-04 11:18:00,
2013-12-04 05:20:00,59.5,59.0,29.03,South,180,0.0,0.0,98,0.00,,,0.00,meteobridge,2013-12-04 11:20:00,
2013-12-04 05:21:00,59.5,59.0,29.04,South,180,0.0,0.0,98,0.00,,,0.00,meteobridge,2013-12-04 11:21:00,
2013-12-04 05:22:00,59.5,59.0,29.03,South,180,0.0,0.0,98,0.00,,,0.00,meteobridge,2013-12-04 11:22:00,
2013-12-04 05:23:00,59.4,58.8,29.04,South,180,0.0,0.0,98,0.00,,,0.00,meteobridge,2013-12-04 11:23:00,
2013-12-04 05:25:00,59.4,58.8,29.04,SSW,203,0.0,0.0,98,0.00,,,0.00,meteobridge,2013-12-04 11:25:00,
2013-12-04 05:27:00,59.4,58.8,29.04,SW,225,0.0,0.0,98,0.00,,,0.00,meteobridge,2013-12-04 11:27:00,
2013-12-04 05:28:00,59.2,58.6,29.04,SW,225,0.0,0.0,98,0.00,,,0.00,meteobridge,2013-12-04 11:28:00,
2013-12-04 05:29:00,59.2,58.6,29.04,South,180,0.0,0.0,98,0.00,,,0.00,meteobridge,2013-12-04 11:29:00,
2013-12-04 05:30:00,59.2,58.8,29.04,SE,135,0.0,0.0,99,0.00,,,0.00,meteobridge,2013-12-04 11:30:00,
2013-12-04 05:32:00,59.2,58.8,29.04,SW,225,0.0,0.0,99,0.00,,,0.00,meteobridge,2013-12-04 11:32:00,
2013-12-04 05:33:00,59.2,58.8,29.04,SE,135,0.0,0.0,99,0.00,,,0.00,meteobridge,2013-12-04 11:33:00,
2013-12-04 05:35:00,59.2,58.8,29.04,SE,135,0.0,0.0,99,0.00,,,0.00,meteobridge,2013-12-04 11:35:00,
2013-12-04 05:38:00,59.2,58.8,29.04,South,180,0.0,0.0,99,0.00,,,0.00,meteobridge,2013-12-04 11:38:00,
2013-12-04 05:39:00,59.2,58.8,29.04,South,180,0.0,0.0,99,0.00,,,0.00,meteobridge,2013-12-04 11:39:00,
2013-12-04 05:40:00,59.2,58.8,29.04,South,180,0.0,0.0,99,0.00,,,0.00,meteobridge,2013-12-04 11:40:00,
2013-12-04 05:41:00,59.4,59.0,29.04,SSW,203,0.0,0.7,99,0.00,,,0.00,meteobridge,2013-12-04 11:41:00,
2013-12-04 05:43:00,59.4,59.0,29.04,South,180,0.0,0.0,99,0.00,,,0.00,meteobridge,2013-12-04 11:43:00,
2013-12-04 05:44:00,59.4,59.0,29.04,SE,135,0.7,0.7,99,0.00,,,0.00,meteobridge,2013-12-04 11:44:00,
2013-12-04 05:47:00,59.4,59.0,29.05,SSE,158,0.0,0.0,99,0.00,,,0.00,meteobridge,2013-12-04 11:47:00,
2013-12-04 05:48:00,59.4,59.0,29.04,SSE,158,0.0,0.0,99,0.00,,,0.00,meteobridge,2013-12-04 11:48:00,
2013-12-04 05:49:00,59.4,59.0,29.04,SSE,158,0.0,0.0,99,0.00,,,0.00,meteobridge,2013-12-04 11:49:00,
2013-12-04 05:51:00,59.4,59.0,29.04,SSE,158,0.0,0.0,99,0.00,,,0.00,meteobridge,2013-12-04 11:51:00,
2013-12-04 05:53:00,59.4,59.0,29.05,South,180,0.0,0.0,99,0.00,,,0.00,meteobridge,2013-12-04 11:53:00,
2013-12-04 05:54:00,59.4,59.0,29.05,South,180,0.0,0.0,99,0.00,,,0.00,meteobridge,2013-12-04 11:54:00,
2013-12-04 05:57:00,59.2,58.8,29.05,SE,135,0.0,0.0,99,0.00,,,0.00,meteobridge,2013-12-04 11:57:00,
2013-12-04 05:58:00,59.2,58.8,29.05,SE,135,0.0,0.0,99,0.00,,,0.00,meteobridge,2013-12-04 11:58:00,
2013-12-04 05:59:00,59.2,58.8,29.05,SE,135,0.0,0.0,99,0.00,,,0.00,meteobridge,2013-12-04 11:59:00,
2013-12-04 06:01:00,59.2,58.8,29.05,South,180,0.0,0.0,99,0.00,,,0.00,meteobridge,2013-12-04 12:01:00,
2013-12-04 06:03:00,59.2,58.8,29.04,South,180,0.0,0.0,99,0.00,,,0.00,meteobridge,2013-12-04 12:03:00,
2013-12-04 06:05:00,59.2,58.8,29.04,South,180,0.0,0.0,99,0.00,,,0.00,meteobridge,2013-12-04 12:05:00,
2013-12-04 06:09:00,59.4,59.0,29.05,SE,135,0.0,0.0,99,0.00,,,0.00,meteobridge,2013-12-04 12:09:00,
2013-12-04 06:11:00,59.2,58.8,29.05,South,180,0.0,0.0,99,0.00,,,0.00,meteobridge,2013-12-04 12:11:00,
2013-12-04 06:12:00,59.2,58.8,29.05,South,180,0.0,0.0,99,0.00,,,0.00,meteobridge,2013-12-04 12:12:00,
2013-12-04 06:13:00,59.2,58.8,29.05,SE,135,0.0,0.0,99,0.00,,,0.00,meteobridge,2013-12-04 12:13:00,
2013-12-04 06:14:00,59.2,58.8,29.05,South,180,0.0,0.0,99,0.00,,,0.00,meteobridge,2013-12-04 12:14:00,
2013-12-04 06:16:00,59.2,58.8,29.05,South,180,0.0,0.0,99,0.00,,,0.00,meteobridge,2013-12-04 12:16:00,
2013-12-04 06:17:00,59.2,58.8,29.05,SW,225,0.0,0.0,99,0.00,,,0.00,meteobridge,2013-12-04 12:17:00,
2013-12-04 06:18:00,59.2,58.8,29.05,South,180,0.0,0.0,99,0.00,,,0.00,meteobridge,2013-12-04 12:18:00,
2013-12-04 06:19:00,59.2,58.8,29.05,SW,225,0.0,0.0,99,0.00,,,0.00,meteobridge,2013-12-04 12:19:00,
2013-12-04 06:21:00,59.2,58.8,29.05,SSE,158,0.0,0.7,99,0.00,,,0.00,meteobridge,2013-12-04 12:21:00,
2013-12-04 06:22:00,59.4,59.0,29.05,South,180,0.7,0.7,99,0.00,,,0.00,meteobridge,2013-12-04 12:22:00,
2013-12-04 06:24:00,59.4,59.0,29.05,South,180,0.0,0.0,99,0.00,,,0.00,meteobridge,2013-12-04 12:24:00,
2013-12-04 06:26:00,59.4,59.0,29.05,SSW,203,0.0,0.7,99,0.00,,,0.00,meteobridge,2013-12-04 12:26:00,
2013-12-04 06:27:00,59.4,59.0,29.05,South,180,0.0,0.7,99,0.00,,,0.00,meteobridge,2013-12-04 12:27:00,
2013-12-04 06:28:00,59.4,59.0,29.05,South,180,0.0,0.0,99,0.00,,,0.00,meteobridge,2013-12-04 12:28:00,
2013-12-04 06:31:00,59.4,58.8,29.06,South,180,0.0,0.0,98,0.00,,,0.00,meteobridge,2013-12-04 12:31:00,
2013-12-04 06:33:00,59.4,58.8,29.05,South,180,0.0,0.0,98,0.00,,,0.00,meteobridge,2013-12-04 12:33:00,
2013-12-04 06:34:00,59.4,58.8,29.05,SE,135,0.0,0.0,98,0.00,,,0.00,meteobridge,2013-12-04 12:34:00,
2013-12-04 06:37:00,59.2,58.6,29.05,South,180,0.0,0.0,98,0.00,,,0.00,meteobridge,2013-12-04 12:37:00,
2013-12-04 06:39:00,59.2,58.6,29.06,South,180,0.0,0.0,98,0.00,,,0.00,meteobridge,2013-12-04 12:39:00,
2013-12-04 06:42:00,59.2,58.8,29.06,South,180,0.0,0.0,99,0.00,,,0.00,meteobridge,2013-12-04 12:42:00,
2013-12-04 06:43:00,59.0,58.6,29.06,SE,135,0.0,0.0,99,0.00,,,0.00,meteobridge,2013-12-04 12:43:00,
2013-12-04 06:44:00,59.0,58.6,29.06,South,180,0.7,0.7,99,0.00,,,0.00,meteobridge,2013-12-04 12:44:00,
2013-12-04 06:45:00,59.2,58.8,29.06,South,180,0.0,0.7,99,0.00,,,0.00,meteobridge,2013-12-04 12:45:00,
2013-12-04 06:46:00,59.2,58.8,29.07,South,180,0.0,0.7,99,0.00,,,0.00,meteobridge,2013-12-04 12:46:00,
2013-12-04 06:49:00,59.2,58.8,29.07,SSW,203,0.7,0.7,99,0.00,,,0.00,meteobridge,2013-12-04 12:49:00,
2013-12-04 06:50:00,59.2,58.8,29.07,South,180,0.7,0.7,99,0.00,,,0.00,meteobridge,2013-12-04 12:50:00,
2013-12-04 06:51:00,59.2,58.8,29.06,South,180,0.7,0.7,99,0.00,,,0.00,meteobridge,2013-12-04 12:51:00,
2013-12-04 06:54:00,59.2,58.8,29.07,SSW,203,0.7,0.7,99,0.00,,,0.00,meteobridge,2013-12-04 12:54:00,
2013-12-04 06:55:00,59.4,59.0,29.07,SW,225,0.0,0.7,99,0.00,,,0.00,meteobridge,2013-12-04 12:55:00,
2013-12-04 06:56:00,59.4,59.0,29.07,South,180,0.7,0.7,99,0.00,,,0.00,meteobridge,2013-12-04 12:56:00,
2013-12-04 06:57:00,59.4,59.0,29.07,South,180,0.0,0.7,99,0.00,,,0.00,meteobridge,2013-12-04 12:57:00,
2013-12-04 06:58:00,59.4,59.0,29.07,South,180,0.0,0.7,99,0.00,,,0.00,meteobridge,2013-12-04 12:58:00,
2013-12-04 07:01:00,59.4,59.0,29.07,SW,225,0.7,0.7,99,0.00,,,0.00,meteobridge,2013-12-04 13:01:00,
2013-12-04 07:02:00,59.4,59.0,29.07,SW,225,0.7,0.7,99,0.00,,,0.00,meteobridge,2013-12-04 13:02:00,
2013-12-04 07:03:00,59.4,59.0,29.07,SW,225,0.7,0.7,99,0.00,,,0.00,meteobridge,2013-12-04 13:03:00,
2013-12-04 07:07:00,59.4,59.0,29.07,SW,225,0.7,0.7,99,0.00,,,0.00,meteobridge,2013-12-04 13:07:00,
2013-12-04 07:08:00,59.4,59.0,29.07,SW,225,0.7,0.7,99,0.00,,,0.00,meteobridge,2013-12-04 13:08:00,
2013-12-04 07:11:00,59.4,59.0,29.08,South,180,0.7,0.7,99,0.00,,,0.00,meteobridge,2013-12-04 13:11:00,
2013-12-04 07:12:00,59.4,59.0,29.08,SW,225,0.0,0.7,99,0.00,,,0.00,meteobridge,2013-12-04 13:12:00,
2013-12-04 07:13:00,59.4,59.0,29.08,SW,225,0.0,0.7,99,0.00,,,0.00,meteobridge,2013-12-04 13:13:00,
2013-12-04 07:16:00,59.2,58.8,29.08,South,180,0.7,0.7,99,0.00,,,0.00,meteobridge,2013-12-04 13:16:00,
2013-12-04 07:18:00,59.4,59.0,29.08,South,180,0.7,0.7,99,0.00,,,0.00,meteobridge,2013-12-04 13:18:00,
2013-12-04 07:19:00,59.4,59.0,29.08,South,180,0.0,0.7,99,0.00,,,0.00,meteobridge,2013-12-04 13:19:00,
2013-12-04 07:21:00,59.5,59.2,29.08,SE,135,0.7,0.7,99,0.00,,,0.00,meteobridge,2013-12-04 13:21:00,
2013-12-04 07:22:00,59.5,59.2,29.08,South,180,0.0,0.7,99,0.00,,,0.00,meteobridge,2013-12-04 13:22:00,
2013-12-04 07:24:00,59.5,59.2,29.08,South,180,0.0,0.0,99,0.00,,,0.00,meteobridge,2013-12-04 13:24:00,
2013-12-04 07:25:00,59.7,59.4,29.09,SE,135,0.0,0.0,99,0.00,,,0.00,meteobridge,2013-12-04 13:25:00,
2013-12-04 07:26:00,59.7,59.4,29.09,SE,135,0.0,0.7,99,0.00,,,0.00,meteobridge,2013-12-04 13:26:00,
2013-12-04 07:29:00,59.9,59.5,29.09,SSE,158,0.0,0.0,99,0.00,,,0.00,meteobridge,2013-12-04 13:29:00,
2013-12-04 07:30:00,59.9,59.5,29.09,South,180,0.0,0.0,99,0.00,,,0.00,meteobridge,2013-12-04 13:30:00,
2013-12-04 07:32:00,59.9,59.5,29.08,South,180,0.0,0.7,99,0.00,,,0.00,meteobridge,2013-12-04 13:32:00,
2013-12-04 07:33:00,59.9,59.5,29.09,SE,135,0.0,0.7,99,0.00,,,0.00,meteobridge,2013-12-04 13:33:00,
2013-12-04 07:34:00,60.1,59.7,29.09,SE,135,0.7,0.7,99,0.00,,,0.00,meteobridge,2013-12-04 13:34:00,
2013-12-04 07:35:00,60.1,59.7,29.09,South,180,0.0,0.7,99,0.00,,,0.00,meteobridge,2013-12-04 13:35:00,
2013-12-04 07:36:00,60.1,59.7,29.09,SSW,203,0.0,0.7,99,0.00,,,0.00,meteobridge,2013-12-04 13:36:00,
2013-12-04 07:37:00,60.1,59.7,29.09,SW,225,0.7,0.7,99,0.00,,,0.00,meteobridge,2013-12-04 13:37:00,
2013-12-04 07:38:00,60.1,59.7,29.09,South,180,0.0,0.7,99,0.00,,,0.00,meteobridge,2013-12-04 13:38:00,
2013-12-04 07:39:00,60.1,59.7,29.09,South,180,0.0,0.7,99,0.00,,,0.00,meteobridge,2013-12-04 13:39:00,
2013-12-04 07:40:00,60.1,59.7,29.09,South,180,0.7,0.7,99,0.00,,,0.00,meteobridge,2013-12-04 13:40:00,
2013-12-04 07:42:00,60.1,59.7,29.10,South,180,0.7,0.7,99,0.00,,,0.00,meteobridge,2013-12-04 13:42:00,
2013-12-04 07:43:00,60.3,59.9,29.10,South,180,1.6,1.6,99,0.00,,,0.00,meteobridge,2013-12-04 13:43:00,
2013-12-04 07:44:00,60.3,59.9,29.10,South,180,1.6,1.6,99,0.00,,,0.00,meteobridge,2013-12-04 13:44:00,
2013-12-04 07:46:00,60.3,59.9,29.10,South,180,0.0,0.0,99,0.00,,,0.00,meteobridge,2013-12-04 13:46:00,
2013-12-04 07:47:00,60.3,59.9,29.10,South,180,0.0,0.0,99,0.00,,,0.00,meteobridge,2013-12-04 13:47:00,
2013-12-04 07:48:00,60.4,60.1,29.09,South,180,0.0,0.0,99,0.00,,,0.00,meteobridge,2013-12-04 13:48:00,
2013-12-04 07:49:00,60.3,59.9,29.10,South,180,0.0,0.0,99,0.00,,,0.00,meteobridge,2013-12-04 13:49:00,
2013-12-04 07:50:00,60.4,60.1,29.10,South,180,0.0,0.0,99,0.00,,,0.00,meteobridge,2013-12-04 13:50:00,
2013-12-04 07:52:00,60.4,60.1,29.10,SSW,203,0.0,0.0,99,0.00,,,0.00,meteobridge,2013-12-04 13:52:00,
2013-12-04 07:53:00,60.4,60.1,29.10,SSE,158,0.0,0.7,99,0.00,,,0.00,meteobridge,2013-12-04 13:53:00,
2013-12-04 07:54:00,60.6,60.3,29.10,South,180,0.7,0.7,99,0.00,,,0.00,meteobridge,2013-12-04 13:54:00,
2013-12-04 07:57:00,60.6,60.3,29.10,SSW,203,0.7,0.7,99,0.00,,,0.00,meteobridge,2013-12-04 13:57:00,
2013-12-04 07:59:00,60.8,60.4,29.10,South,180,0.7,0.7,99,0.00,,,0.00,meteobridge,2013-12-04 13:59:00,
2013-12-04 08:00:00,60.8,60.4,29.10,South,180,0.7,0.7,99,0.00,,,0.00,meteobridge,2013-12-04 14:00:00,
2013-12-04 08:01:00,60.8,60.4,29.10,South,180,0.7,0.7,99,0.00,,,0.00,meteobridge,2013-12-04 14:01:00,
2013-12-04 08:03:00,60.8,60.4,29.10,South,180,1.6,1.6,99,0.00,,,0.00,meteobridge,2013-12-04 14:03:00,
2013-12-04 08:04:00,61.0,60.6,29.10,South,180,0.7,1.6,99,0.00,,,0.00,meteobridge,2013-12-04 14:04:00,
2013-12-04 08:05:00,61.0,60.6,29.10,South,180,0.7,1.6,99,0.00,,,0.00,meteobridge,2013-12-04 14:05:00,
2013-12-04 08:06:00,61.0,60.6,29.10,South,180,0.0,0.7,99,0.00,,,0.00,meteobridge,2013-12-04 14:06:00,
2013-12-04 08:08:00,61.0,60.6,29.10,South,180,0.7,0.7,99,0.00,,,0.00,meteobridge,2013-12-04 14:08:00,
2013-12-04 08:10:00,61.0,60.6,29.10,South,180,0.0,0.7,99,0.00,,,0.00,meteobridge,2013-12-04 14:10:00,
2013-12-04 08:11:00,61.0,60.6,29.10,South,180,0.7,0.7,99,0.00,,,0.00,meteobridge,2013-12-04 14:11:00,
2013-12-04 08:14:00,61.2,60.8,29.10,South,180,0.0,0.0,99,0.00,,,0.00,meteobridge,2013-12-04 14:14:00,
2013-12-04 08:16:00,61.2,60.8,29.10,South,180,0.0,0.0,99,0.00,,,0.00,meteobridge,2013-12-04 14:16:00,
2013-12-04 08:17:00,61.3,61.0,29.10,SE,135,0.7,0.7,99,0.00,,,0.00,meteobridge,2013-12-04 14:17:00,
2013-12-04 08:18:00,61.3,61.0,29.10,SSW,203,0.7,0.7,99,0.00,,,0.00,meteobridge,2013-12-04 14:18:00,
2013-12-04 08:20:00,61.3,61.0,29.10,South,180,0.0,0.7,99,0.00,,,0.00,meteobridge,2013-12-04 14:20:00,
2013-12-04 08:21:00,61.3,61.0,29.10,SW,225,0.7,0.7,99,0.00,,,0.00,meteobridge,2013-12-04 14:21:00,
2013-12-04 08:22:00,61.3,61.0,29.11,SW,225,0.7,0.7,99,0.00,,,0.00,meteobridge,2013-12-04 14:22:00,
2013-12-04 08:25:00,61.5,61.2,29.10,South,180,0.0,0.7,99,0.00,,,0.00,meteobridge,2013-12-04 14:25:00,
2013-12-04 08:27:00,61.5,61.2,29.11,South,180,0.0,0.0,99,0.00,,,0.00,meteobridge,2013-12-04 14:27:00,
2013-12-04 08:28:00,61.5,61.2,29.11,SE,135,0.0,0.0,99,0.00,,,0.00,meteobridge,2013-12-04 14:28:00,
2013-12-04 08:29:00,61.7,61.3,29.11,South,180,0.0,0.0,99,0.00,,,0.00,meteobridge,2013-12-04 14:29:00,
2013-12-04 08:31:00,61.5,61.2,29.10,SE,135,0.7,0.7,99,0.00,,,0.00,meteobridge,2013-12-04 14:31:00,
2013-12-04 08:33:00,61.9,61.5,29.11,SW,225,0.7,0.7,99,0.00,,,0.00,meteobridge,2013-12-04 14:33:00,
2013-12-04 08:34:00,61.9,61.5,29.11,South,180,0.0,0.7,99,0.00,,,0.00,meteobridge,2013-12-04 14:34:00,
2013-12-04 08:35:00,61.9,61.5,29.11,SE,135,0.7,0.7,99,0.00,,,0.00,meteobridge,2013-12-04 14:35:00,
2013-12-04 08:36:00,61.9,61.5,29.11,SSE,158,0.7,0.7,99,0.00,,,0.00,meteobridge,2013-12-04 14:36:00,
2013-12-04 08:38:00,62.1,61.7,29.11,SE,135,0.7,0.7,99,0.00,,,0.00,meteobridge,2013-12-04 14:38:00,
2013-12-04 08:39:00,62.2,61.9,29.11,SSE,158,0.0,0.7,99,0.00,,,0.00,meteobridge,2013-12-04 14:39:00,
2013-12-04 08:40:00,62.2,61.9,29.11,South,180,0.7,0.7,99,0.00,,,0.00,meteobridge,2013-12-04 14:40:00,
2013-12-04 08:41:00,62.2,61.9,29.11,South,180,0.7,0.7,99,0.00,,,0.00,meteobridge,2013-12-04 14:41:00,
2013-12-04 08:44:00,62.4,62.1,29.11,South,180,0.0,0.0,99,0.00,,,0.00,meteobridge,2013-12-04 14:44:00,
2013-12-04 08:45:00,62.4,62.1,29.11,SW,225,0.7,0.7,99,0.00,,,0.00,meteobridge,2013-12-04 14:45:00,
2013-12-04 08:46:00,62.4,62.1,29.11,SW,225,0.7,0.7,99,0.00,,,0.00,meteobridge,2013-12-04 14:46:00,
2013-12-04 08:47:00,62.6,62.2,29.11,South,180,0.0,0.7,99,0.00,,,0.00,meteobridge,2013-12-04 14:47:00,
2013-12-04 08:49:00,62.8,62.4,29.11,South,180,0.7,0.7,99,0.00,,,0.00,meteobridge,2013-12-04 14:49:00,
2013-12-04 08:51:00,63.0,62.6,29.11,SSW,203,1.6,1.6,99,0.00,,,0.00,meteobridge,2013-12-04 14:51:00,
2013-12-04 08:52:00,63.0,62.6,29.11,SSW,203,1.6,1.6,99,0.00,,,0.00,meteobridge,2013-12-04 14:52:00,
2013-12-04 08:53:00,63.1,62.8,29.11,South,180,0.0,1.6,99,0.00,,,0.00,meteobridge,2013-12-04 14:53:00,
2013-12-04 08:55:00,63.1,62.8,29.12,South,180,1.6,1.6,99,0.00,,,0.00,meteobridge,2013-12-04 14:55:00,
2013-12-04 08:57:00,63.3,63.0,29.12,SSE,158,0.7,0.7,99,0.00,,,0.00,meteobridge,2013-12-04 14:57:00,
2013-12-04 08:58:00,63.3,63.0,29.12,SW,225,1.6,1.6,99,0.00,,,0.00,meteobridge,2013-12-04 14:58:00,
2013-12-04 09:01:00,63.5,63.1,29.12,South,180,0.7,0.7,99,0.00,,,0.00,meteobridge,2013-12-04 15:01:00,
2013-12-04 09:02:00,63.7,63.3,29.12,South,180,0.7,0.7,99,0.00,,,0.00,meteobridge,2013-12-04 15:02:00,
2013-12-04 09:04:00,63.7,63.3,29.12,SW,225,0.7,0.7,99,0.00,,,0.00,meteobridge,2013-12-04 15:04:00,
2013-12-04 09:07:00,63.9,63.5,29.12,South,180,3.8,6.0,99,0.00,,,0.00,meteobridge,2013-12-04 15:07:00,
2013-12-04 09:08:00,63.9,63.5,29.12,South,180,3.8,6.0,99,0.00,,,0.00,meteobridge,2013-12-04 15:08:00,
2013-12-04 09:10:00,64.0,63.7,29.12,SE,135,1.6,1.6,99,0.00,,,0.00,meteobridge,2013-12-04 15:10:00,
2013-12-04 09:11:00,64.0,63.7,29.13,SW,225,0.0,1.6,99,0.00,,,0.00,meteobridge,2013-12-04 15:11:00,
2013-12-04 09:13:00,64.2,63.9,29.12,NE,45,0.7,0.7,99,0.00,,,0.00,meteobridge,2013-12-04 15:13:00,
2013-12-04 09:15:00,64.6,64.2,29.13,SE,135,1.6,1.6,99,0.00,,,0.00,meteobridge,2013-12-04 15:15:00,
2013-12-04 09:16:00,64.6,64.2,29.12,SE,135,1.6,1.6,99,0.00,,,0.00,meteobridge,2013-12-04 15:16:00,
2013-12-04 09:17:00,64.6,64.2,29.13,South,180,9.8,9.8,99,0.00,,,0.00,meteobridge,2013-12-04 15:17:00,
2013-12-04 09:18:00,64.8,64.4,29.13,South,180,6.0,9.8,99,0.00,,,0.00,meteobridge,2013-12-04 15:18:00,
2013-12-04 09:19:00,64.8,64.4,29.12,SE,135,4.5,9.8,99,0.00,,,0.00,meteobridge,2013-12-04 15:19:00,
2013-12-04 09:22:00,64.9,64.6,29.13,South,180,7.6,7.6,99,0.00,,,0.00,meteobridge,2013-12-04 15:22:00,
2013-12-04 09:23:00,64.9,64.6,29.13,South,180,5.4,7.6,99,0.00,,,0.00,meteobridge,2013-12-04 15:23:00,
2013-12-04 09:24:00,64.9,64.6,29.13,South,180,9.8,9.8,99,0.00,,,0.00,meteobridge,2013-12-04 15:24:00,
2013-12-04 09:25:00,65.1,64.8,29.13,South,180,7.6,9.8,99,0.00,,,0.00,meteobridge,2013-12-04 15:25:00,
2013-12-04 09:28:00,65.1,64.8,29.13,SE,135,9.2,9.8,99,0.00,,,0.00,meteobridge,2013-12-04 15:28:00,
2013-12-04 09:29:00,65.1,64.8,29.13,SSE,158,7.6,9.2,99,0.00,,,0.00,meteobridge,2013-12-04 15:29:00,
2013-12-04 09:30:00,65.1,64.8,29.13,SE,135,8.3,9.2,99,0.00,,,0.00,meteobridge,2013-12-04 15:30:00,
2013-12-04 09:34:00,65.3,64.9,29.13,SE,135,0.0,1.6,99,0.00,,,0.00,meteobridge,2013-12-04 15:34:00,
2013-12-04 09:35:00,65.5,65.1,29.13,South,180,0.7,0.7,99,0.00,,,0.00,meteobridge,2013-12-04 15:35:00,
2013-12-04 09:36:00,65.5,65.1,29.13,SE,135,0.7,1.6,99,0.00,,,0.00,meteobridge,2013-12-04 15:36:00,
2013-12-04 09:37:00,65.5,64.9,29.13,SSE,158,1.6,1.6,98,0.00,,,0.00,meteobridge,2013-12-04 15:37:00,
2013-12-04 09:38:00,65.5,64.9,29.13,SE,135,0.7,1.6,98,0.00,,,0.00,meteobridge,2013-12-04 15:38:00,
2013-12-04 09:39:00,65.5,64.9,29.13,South,180,0.7,1.6,98,0.00,,,0.00,meteobridge,2013-12-04 15:39:00,
2013-12-04 09:42:00,65.7,65.1,29.13,SE,135,0.7,1.6,98,0.00,,,0.00,meteobridge,2013-12-04 15:42:00,
2013-12-04 09:44:00,65.8,65.3,29.13,SW,225,0.7,0.7,98,0.00,,,0.00,meteobridge,2013-12-04 15:44:00,
2013-12-04 09:45:00,66.0,65.5,29.13,WSW,248,1.6,1.6,98,0.00,,,0.00,meteobridge,2013-12-04 15:45:00,
2013-12-04 09:46:00,66.2,65.3,29.13,South,180,1.6,1.6,97,0.00,,,0.00,meteobridge,2013-12-04 15:46:00,
2013-12-04 09:48:00,66.4,65.5,29.13,South,180,5.4,5.4,97,0.00,,,0.00,meteobridge,2013-12-04 15:48:00,
2013-12-04 09:49:00,66.6,65.7,29.13,West,270,9.2,9.2,97,0.00,,,0.00,meteobridge,2013-12-04 15:49:00,
2013-12-04 09:50:00,66.6,65.3,29.13,South,180,7.6,9.2,96,0.00,,,0.00,meteobridge,2013-12-04 15:50:00,
2013-12-04 09:52:00,66.7,65.5,29.13,South,180,6.9,7.6,96,0.00,,,0.00,meteobridge,2013-12-04 15:52:00,
2013-12-04 09:53:00,66.9,65.5,29.13,SW,225,3.8,6.9,95,0.00,,,0.00,meteobridge,2013-12-04 15:53:00,
2013-12-04 09:55:00,66.9,65.5,29.13,South,180,11.4,11.4,95,0.00,,,0.00,meteobridge,2013-12-04 15:55:00,
2013-12-04 09:57:00,67.1,65.3,29.13,South,180,7.6,11.4,94,0.00,,,0.00,meteobridge,2013-12-04 15:57:00,
2013-12-04 09:58:00,67.1,65.3,29.12,South,180,5.4,11.4,94,0.00,,,0.00,meteobridge,2013-12-04 15:58:00,
2013-12-04 10:00:00,67.1,65.3,29.13,South,180,1.6,1.6,94,0.00,,,0.00,meteobridge,2013-12-04 16:00:00,
2013-12-04 10:01:00,67.1,65.3,29.13,South,180,1.6,1.6,94,0.00,,,0.00,meteobridge,2013-12-04 16:01:00,
2013-12-04 10:02:00,67.3,65.5,29.13,South,180,0.7,1.6,94,0.00,,,0.00,meteobridge,2013-12-04 16:02:00,
2013-12-04 10:04:00,67.5,65.7,29.13,South,180,6.9,6.9,94,0.00,,,0.00,meteobridge,2013-12-04 16:04:00,
2013-12-04 10:05:00,67.5,65.3,29.13,SW,225,6.9,6.9,93,0.00,,,0.00,meteobridge,2013-12-04 16:05:00,
2013-12-04 10:06:00,67.5,65.3,29.13,SE,135,6.0,6.9,93,0.00,,,0.00,meteobridge,2013-12-04 16:06:00,
2013-12-04 10:08:00,67.6,65.5,29.13,SW,225,6.0,9.2,93,0.00,,,0.00,meteobridge,2013-12-04 16:08:00,
2013-12-04 10:10:00,67.6,65.5,29.13,SSE,158,0.7,6.0,93,0.00,,,0.00,meteobridge,2013-12-04 16:10:00,
2013-12-04 10:11:00,67.6,65.5,29.13,North,0,0.7,0.7,93,0.00,,,0.00,meteobridge,2013-12-04 16:11:00,
2013-12-04 10:12:00,67.8,65.7,29.13,SE,135,1.6,1.6,93,0.00,,,0.00,meteobridge,2013-12-04 16:12:00,
2013-12-04 10:13:00,67.8,65.5,29.13,SE,135,6.0,6.0,92,0.00,,,0.00,meteobridge,2013-12-04 16:13:00,
2013-12-04 10:14:00,67.8,65.5,29.13,South,180,9.2,9.2,92,0.00,,,0.00,meteobridge,2013-12-04 16:14:00,
2013-12-04 10:17:00,67.8,65.5,29.13,South,180,0.7,3.8,92,0.00,,,0.00,meteobridge,2013-12-04 16:17:00,
2013-12-04 10:18:00,67.8,65.5,29.13,SSE,158,0.7,3.8,92,0.00,,,0.00,meteobridge,2013-12-04 16:18:00,
2013-12-04 10:19:00,68.0,65.7,29.13,SW,225,1.6,1.6,92,0.00,,,0.00,meteobridge,2013-12-04 16:19:00,
2013-12-04 10:20:00,68.0,65.7,29.13,SW,225,0.7,1.6,92,0.00,,,0.00,meteobridge,2013-12-04 16:20:00,
2013-12-04 10:21:00,68.0,65.7,29.14,South,180,0.7,1.6,92,0.00,,,0.00,meteobridge,2013-12-04 16:21:00,
2013-12-04 10:23:00,68.2,65.8,29.13,SSW,203,1.6,1.6,92,0.00,,,0.00,meteobridge,2013-12-04 16:23:00,
2013-12-04 10:24:00,68.2,65.8,29.13,SW,225,7.6,7.6,92,0.00,,,0.00,meteobridge,2013-12-04 16:24:00,
2013-12-04 10:25:00,68.4,66.0,29.13,South,180,7.6,13.6,92,0.00,,,0.00,meteobridge,2013-12-04 16:25:00,
2013-12-04 10:26:00,68.5,66.2,29.13,South,180,0.7,7.6,92,0.00,,,0.00,meteobridge,2013-12-04 16:26:00,
2013-12-04 10:29:00,68.9,66.2,29.13,South,180,0.7,0.7,91,0.00,,,0.00,meteobridge,2013-12-04 16:29:00,
2013-12-04 10:30:00,69.1,66.4,29.13,South,180,0.7,0.7,91,0.00,,,0.00,meteobridge,2013-12-04 16:30:00,
2013-12-04 10:31:00,69.1,66.4,29.13,South,180,0.7,0.7,91,0.00,,,0.00,meteobridge,2013-12-04 16:31:00,
2013-12-04 10:32:00,69.6,66.6,29.13,SW,225,6.9,6.9,90,0.00,,,0.00,meteobridge,2013-12-04 16:32:00,
2013-12-04 10:33:00,69.6,66.6,29.13,SW,225,6.9,6.9,90,0.00,,,0.00,meteobridge,2013-12-04 16:33:00,
2013-12-04 10:35:00,69.8,66.4,29.13,SW,225,4.5,10.7,89,0.00,,,0.00,meteobridge,2013-12-04 16:35:00,
2013-12-04 10:36:00,70.0,66.6,29.13,South,180,9.8,9.8,89,0.00,,,0.00,meteobridge,2013-12-04 16:36:00,
2013-12-04 10:37:00,70.0,66.6,29.12,South,180,6.9,9.8,89,0.00,,,0.00,meteobridge,2013-12-04 16:37:00,
2013-12-04 10:40:00,70.0,66.2,29.13,South,180,0.7,7.6,88,0.00,,,0.00,meteobridge,2013-12-04 16:40:00,
2013-12-04 10:41:00,70.0,66.2,29.13,South,180,0.7,7.6,88,0.00,,,0.00,meteobridge,2013-12-04 16:41:00,
2013-12-04 10:43:00,70.2,66.4,29.13,SSE,158,0.7,0.7,88,0.00,,,0.00,meteobridge,2013-12-04 16:43:00,
2013-12-04 10:44:00,70.2,66.4,29.13,South,180,6.0,6.9,88,0.00,,,0.00,meteobridge,2013-12-04 16:44:00,
2013-12-04 10:46:00,70.3,66.6,29.13,South,180,5.4,6.0,88,0.00,,,0.00,meteobridge,2013-12-04 16:46:00,
2013-12-04 10:48:00,70.3,66.6,29.13,South,180,1.6,5.4,88,0.00,,,0.00,meteobridge,2013-12-04 16:48:00,
2013-12-04 10:49:00,70.2,66.0,29.13,SE,135,0.7,1.6,87,0.00,,,0.00,meteobridge,2013-12-04 16:49:00,
2013-12-04 10:50:00,70.2,66.0,29.13,South,180,6.9,6.9,87,0.00,,,0.00,meteobridge,2013-12-04 16:50:00,
2013-12-04 10:51:00,70.2,66.0,29.13,SE,135,7.6,7.6,87,0.00,,,0.00,meteobridge,2013-12-04 16:51:00,
2013-12-04 10:53:00,70.3,66.6,29.13,South,180,0.7,5.4,88,0.00,,,0.00,meteobridge,2013-12-04 16:53:00,
2013-12-04 10:54:00,70.3,66.2,29.12,South,180,0.7,0.7,87,0.00,,,0.00,meteobridge,2013-12-04 16:54:00,
2013-12-04 10:55:00,70.5,66.4,29.13,South,180,0.7,1.6,87,0.00,,,0.00,meteobridge,2013-12-04 16:55:00,
2013-12-04 10:56:00,70.5,66.4,29.12,South,180,0.7,1.6,87,0.00,,,0.00,meteobridge,2013-12-04 16:56:00,
2013-12-04 10:58:00,70.5,66.4,29.13,South,180,0.0,0.7,87,0.00,,,0.00,meteobridge,2013-12-04 16:58:00,
2013-12-04 10:59:00,70.7,66.6,29.12,SW,225,1.6,1.6,87,0.00,,,0.00,meteobridge,2013-12-04 16:59:00,
2013-12-04 11:00:00,70.9,67.1,29.13,SE,135,5.4,5.4,88,0.00,,,0.00,meteobridge,2013-12-04 17:00:00,
2013-12-04 11:01:00,70.9,67.1,29.12,SE,135,5.4,5.4,88,0.00,,,0.00,meteobridge,2013-12-04 17:01:00,
2013-12-04 11:02:00,71.1,66.9,29.13,SSW,203,9.2,9.2,87,0.00,,,0.00,meteobridge,2013-12-04 17:02:00,
2013-12-04 11:04:00,71.2,66.9,29.12,West,270,9.2,11.4,86,0.00,,,0.00,meteobridge,2013-12-04 17:04:00,
2013-12-04 11:06:00,71.4,67.1,29.13,South,180,4.5,9.2,86,0.00,,,0.00,meteobridge,2013-12-04 17:06:00,
2013-12-04 11:07:00,71.6,67.1,29.13,South,180,0.7,4.5,86,0.00,,,0.00,meteobridge,2013-12-04 17:07:00,
2013-12-04 11:08:00,72.0,67.3,29.13,SSE,158,5.4,5.4,85,0.00,,,0.00,meteobridge,2013-12-04 17:08:00,
2013-12-04 11:11:00,72.1,67.1,29.13,SW,225,7.6,8.3,84,0.00,,,0.00,meteobridge,2013-12-04 17:11:00,
2013-12-04 11:12:00,72.3,67.3,29.13,South,180,8.3,8.3,84,0.00,,,0.00,meteobridge,2013-12-04 17:12:00,
2013-12-04 11:14:00,72.5,66.7,29.13,SW,225,6.0,10.7,82,0.00,,,0.00,meteobridge,2013-12-04 17:14:00,
2013-12-04 11:15:00,72.7,67.3,29.12,SE,135,9.2,9.2,83,0.00,,,0.00,meteobridge,2013-12-04 17:15:00,
2013-12-04 11:17:00,72.9,67.5,29.13,South,180,3.1,9.2,83,0.00,,,0.00,meteobridge,2013-12-04 17:17:00,
2013-12-04 11:18:00,73.0,67.3,29.12,South,180,1.6,7.6,82,0.00,,,0.00,meteobridge,2013-12-04 17:18:00,
2013-12-04 11:20:00,73.2,67.1,29.12,SSE,158,0.7,0.7,81,0.00,,,0.00,meteobridge,2013-12-04 17:20:00,
2013-12-04 11:22:00,73.2,67.1,29.12,SE,135,2.2,2.2,81,0.00,,,0.00,meteobridge,2013-12-04 17:22:00,
2013-12-04 11:23:00,73.4,67.3,29.12,South,180,3.1,9.2,81,0.00,,,0.00,meteobridge,2013-12-04 17:23:00,
2013-12-04 11:27:00,73.4,67.3,29.12,SE,135,0.7,0.7,81,0.00,,,0.00,meteobridge,2013-12-04 17:27:00,
2013-12-04 11:29:00,73.6,67.5,29.12,SE,135,0.0,0.7,81,0.00,,,0.00,meteobridge,2013-12-04 17:29:00,
2013-12-04 11:30:00,73.6,67.1,29.12,South,180,0.0,0.0,80,0.00,,,0.00,meteobridge,2013-12-04 17:30:00,
2013-12-04 11:32:00,73.6,67.1,29.12,South,180,0.7,0.7,80,0.00,,,0.00,meteobridge,2013-12-04 17:32:00,
2013-12-04 11:33:00,73.8,67.3,29.12,SW,225,3.8,3.8,80,0.00,,,0.00,meteobridge,2013-12-04 17:33:00,
2013-12-04 11:34:00,74.1,67.6,29.12,SW,225,6.0,6.9,80,0.00,,,0.00,meteobridge,2013-12-04 17:34:00,
2013-12-04 11:35:00,74.1,67.6,29.12,SW,225,6.0,6.9,80,0.00,,,0.00,meteobridge,2013-12-04 17:35:00,
2013-12-04 11:36:00,73.9,67.8,29.12,SSW,203,3.8,6.9,81,0.00,,,0.00,meteobridge,2013-12-04 17:36:00,
2013-12-04 11:37:00,74.1,67.6,29.11,SE,135,3.8,6.9,80,0.00,,,0.00,meteobridge,2013-12-04 17:37:00,
2013-12-04 11:38:00,74.1,67.6,29.12,South,180,0.7,3.8,80,0.00,,,0.00,meteobridge,2013-12-04 17:38:00,
2013-12-04 11:39:00,74.3,67.3,29.12,SSW,203,3.8,3.8,79,0.00,,,0.00,meteobridge,2013-12-04 17:39:00,
2013-12-04 11:40:00,74.3,67.3,29.11,South,180,4.5,4.5,79,0.00,,,0.00,meteobridge,2013-12-04 17:40:00,
2013-12-04 11:44:00,74.8,67.5,29.11,SSW,203,6.9,9.8,78,0.00,,,0.00,meteobridge,2013-12-04 17:44:00,
2013-12-04 11:45:00,74.7,66.9,29.12,South,180,7.6,10.7,77,0.00,,,0.00,meteobridge,2013-12-04 17:45:00,
2013-12-04 11:46:00,74.7,66.9,29.12,South,180,7.6,10.7,77,0.00,,,0.00,meteobridge,2013-12-04 17:46:00,
2013-12-04 11:49:00,74.5,66.7,29.12,South,180,6.0,9.8,77,0.00,,,0.00,meteobridge,2013-12-04 17:49:00,
2013-12-04 11:51:00,74.7,67.3,29.11,South,180,6.0,7.6,78,0.00,,,0.00,meteobridge,2013-12-04 17:51:00,
2013-12-04 11:52:00,74.8,67.5,29.11,SSE,158,7.6,7.6,78,0.00,,,0.00,meteobridge,2013-12-04 17:52:00,
2013-12-04 11:54:00,75.0,67.3,29.11,SW,225,6.0,7.6,77,0.00,,,0.00,meteobridge,2013-12-04 17:54:00,
2013-12-04 11:57:00,75.2,67.5,29.12,SE,135,0.7,5.4,77,0.00,,,0.00,meteobridge,2013-12-04 17:57:00,
2013-12-04 11:58:00,75.2,67.5,29.11,SW,225,0.0,0.7,77,0.00,,,0.00,meteobridge,2013-12-04 17:58:00,
2013-12-04 11:59:00,75.4,67.6,29.11,SW,225,14.5,14.5,77,0.00,,,0.00,meteobridge,2013-12-04 17:59:00,
2013-12-04 12:01:00,75.2,67.5,29.10,North,0,9.2,14.5,77,0.00,,,0.00,meteobridge,2013-12-04 18:01:00,
2013-12-04 12:03:00,75.2,67.5,29.11,SSE,158,9.8,9.8,77,0.00,,,0.00,meteobridge,2013-12-04 18:03:00,
2013-12-04 12:05:00,75.4,67.3,29.11,SW,225,6.0,9.8,76,0.00,,,0.00,meteobridge,2013-12-04 18:05:00,
2013-12-04 12:07:00,75.4,67.3,29.10,South,180,6.9,8.3,76,0.00,,,0.00,meteobridge,2013-12-04 18:07:00,
2013-12-04 12:08:00,75.6,67.5,29.11,South,180,3.8,6.9,76,0.00,,,0.00,meteobridge,2013-12-04 18:08:00,
2013-12-04 12:09:00,75.6,67.5,29.11,South,180,3.8,6.9,76,0.00,,,0.00,meteobridge,2013-12-04 18:09:00,
2013-12-04 12:10:00,75.6,67.1,29.11,South,180,6.0,6.0,75,0.00,,,0.00,meteobridge,2013-12-04 18:10:00,
2013-12-04 12:11:00,75.6,67.1,29.11,SW,225,6.9,6.9,75,0.00,,,0.00,meteobridge,2013-12-04 18:11:00,
2013-12-04 12:13:00,75.6,67.5,29.10,SW,225,3.8,6.9,76,0.00,,,0.00,meteobridge,2013-12-04 18:13:00,
2013-12-04 12:14:00,75.4,67.3,29.10,South,180,12.1,12.1,76,0.00,,,0.00,meteobridge,2013-12-04 18:14:00,
2013-12-04 12:15:00,75.6,67.5,29.11,South,180,3.8,12.1,76,0.00,,,0.00,meteobridge,2013-12-04 18:15:00,
2013-12-04 12:16:00,75.6,67.5,29.10,SSW,203,0.7,12.1,76,0.00,,,0.00,meteobridge,2013-12-04 18:16:00,
2013-12-04 12:17:00,75.6,67.5,29.10,SSW,203,0.7,3.8,76,0.00,,,0.00,meteobridge,2013-12-04 18:17:00,
2013-12-04 12:19:00,75.7,66.9,29.10,SW,225,6.9,10.7,74,0.00,,,0.00,meteobridge,2013-12-04 18:19:00,
2013-12-04 12:20:00,75.7,66.9,29.10,South,180,6.9,10.7,74,0.00,,,0.00,meteobridge,2013-12-04 18:20:00,
2013-12-04 12:21:00,75.7,66.9,29.10,SW,225,10.7,10.7,74,0.00,,,0.00,meteobridge,2013-12-04 18:21:00,
2013-12-04 12:23:00,75.6,66.7,29.10,South,180,6.9,10.7,74,0.00,,,0.00,meteobridge,2013-12-04 18:23:00,
2013-12-04 12:24:00,75.7,66.9,29.10,South,180,6.9,6.9,74,0.00,,,0.00,meteobridge,2013-12-04 18:24:00,
2013-12-04 12:25:00,75.9,67.1,29.10,South,180,4.5,6.9,74,0.00,,,0.00,meteobridge,2013-12-04 18:25:00,
2013-12-04 12:28:00,75.9,67.1,29.10,SE,135,6.0,7.6,74,0.00,,,0.00,meteobridge,2013-12-04 18:28:00,
2013-12-04 12:29:00,75.9,67.1,29.10,SE,135,6.0,7.6,74,0.00,,,0.00,meteobridge,2013-12-04 18:29:00,
2013-12-04 12:30:00,76.1,67.3,29.10,South,180,3.1,6.0,74,0.00,,,0.00,meteobridge,2013-12-04 18:30:00,
2013-12-04 12:32:00,76.1,67.3,29.10,South,180,6.9,6.9,74,0.00,,,0.00,meteobridge,2013-12-04 18:32:00,
2013-12-04 12:36:00,76.5,67.6,29.10,SSE,158,1.6,1.6,74,0.00,,,0.00,meteobridge,2013-12-04 18:36:00,
2013-12-04 12:37:00,76.5,67.1,29.09,SW,225,0.7,1.6,73,0.00,,,0.00,meteobridge,2013-12-04 18:37:00,
2013-12-04 12:41:00,76.3,66.9,29.09,South,180,5.4,13.0,73,0.00,,,0.00,meteobridge,2013-12-04 18:41:00,
2013-12-04 12:42:00,76.3,66.9,29.09,SW,225,5.4,13.0,73,0.00,,,0.00,meteobridge,2013-12-04 18:42:00,
2013-12-04 12:43:00,76.3,66.9,29.09,South,180,9.2,9.2,73,0.00,,,0.00,meteobridge,2013-12-04 18:43:00,
2013-12-04 12:44:00,76.5,67.1,29.09,SSE,158,6.9,9.2,73,0.00,,,0.00,meteobridge,2013-12-04 18:44:00,
2013-12-04 12:46:00,76.5,67.1,29.08,SE,135,0.7,0.7,73,0.00,,,0.00,meteobridge,2013-12-04 18:46:00,
2013-12-04 12:47:00,76.6,67.3,29.09,SW,225,12.1,12.1,73,0.00,,,0.00,meteobridge,2013-12-04 18:47:00,
2013-12-04 12:49:00,76.6,67.3,29.09,South,180,3.8,12.1,73,0.00,,,0.00,meteobridge,2013-12-04 18:49:00,
2013-12-04 12:50:00,76.6,67.3,29.09,SW,225,1.6,8.3,73,0.00,,,0.00,meteobridge,2013-12-04 18:50:00,
2013-12-04 12:51:00,76.8,67.1,29.09,South,180,0.0,1.6,72,0.00,,,0.00,meteobridge,2013-12-04 18:51:00,
2013-12-04 12:53:00,77.0,67.3,29.09,SW,225,1.6,1.6,72,0.00,,,0.00,meteobridge,2013-12-04 18:53:00,
2013-12-04 12:54:00,77.0,67.6,29.09,West,270,7.6,7.6,73,0.00,,,0.00,meteobridge,2013-12-04 18:54:00,
2013-12-04 12:56:00,76.8,67.1,29.08,SE,135,9.8,10.7,72,0.00,,,0.00,meteobridge,2013-12-04 18:56:00,
2013-12-04 12:57:00,76.8,67.1,29.08,SE,135,9.8,10.7,72,0.00,,,0.00,meteobridge,2013-12-04 18:57:00,
2013-12-04 12:58:00,77.0,67.3,29.08,SE,135,1.6,9.8,72,0.00,,,0.00,meteobridge,2013-12-04 18:58:00,
2013-12-04 12:59:00,77.2,67.5,29.08,SW,225,0.0,1.6,72,0.00,,,0.00,meteobridge,2013-12-04 18:59:00,
2013-12-04 13:01:00,77.4,67.6,29.09,SW,225,0.7,0.7,72,0.00,,,0.00,meteobridge,2013-12-04 19:01:00,
2013-12-04 13:03:00,77.7,68.0,29.08,South,180,1.6,1.6,72,0.00,,,0.00,meteobridge,2013-12-04 19:03:00,
2013-12-04 13:04:00,77.9,67.8,29.08,South,180,0.0,1.6,71,0.00,,,0.00,meteobridge,2013-12-04 19:04:00,
2013-12-04 13:05:00,77.9,67.8,29.08,South,180,5.4,5.4,71,0.00,,,0.00,meteobridge,2013-12-04 19:05:00,
2013-12-04 13:09:00,78.3,67.3,29.08,South,180,3.8,6.0,69,0.00,,,0.00,meteobridge,2013-12-04 19:09:00,
2013-12-04 13:10:00,78.4,67.5,29.08,SW,225,6.9,6.9,69,0.00,,,0.00,meteobridge,2013-12-04 19:10:00,
2013-12-04 13:11:00,78.3,67.3,29.08,SW,225,6.0,8.3,69,0.00,,,0.00,meteobridge,2013-12-04 19:11:00,
2013-12-04 13:14:00,78.4,67.5,29.08,SSW,203,9.8,9.8,69,0.00,,,0.00,meteobridge,2013-12-04 19:14:00,
2013-12-04 13:15:00,78.4,66.9,29.07,SW,225,12.1,12.1,68,0.00,,,0.00,meteobridge,2013-12-04 19:15:00,
2013-12-04 13:16:00,78.3,66.7,29.08,SW,225,9.8,12.1,68,0.00,,,0.00,meteobridge,2013-12-04 19:16:00,
2013-12-04 13:21:00,78.4,67.5,29.08,SW,225,0.0,5.4,69,0.00,,,0.00,meteobridge,2013-12-04 19:21:00,
2013-12-04 13:22:00,78.6,67.6,29.07,South,180,0.7,5.4,69,0.00,,,0.00,meteobridge,2013-12-04 19:22:00,
2013-12-04 13:24:00,79.0,68.0,29.07,SE,135,3.8,3.8,69,0.00,,,0.00,meteobridge,2013-12-04 19:24:00,
2013-12-04 13:27:00,79.3,67.8,29.07,South,180,1.6,1.6,68,0.00,,,0.00,meteobridge,2013-12-04 19:27:00,
2013-12-04 13:28:00,79.2,67.6,29.07,South,180,0.7,1.6,68,0.00,,,0.00,meteobridge,2013-12-04 19:28:00,
2013-12-04 13:29:00,79.2,67.6,29.07,South,180,6.0,6.0,68,0.00,,,0.00,meteobridge,2013-12-04 19:29:00,
2013-12-04 13:30:00,79.2,67.3,29.07,SW,225,5.4,6.0,67,0.00,,,0.00,meteobridge,2013-12-04 19:30:00,
2013-12-04 13:32:00,79.3,66.9,29.07,SW,225,10.7,10.7,66,0.00,,,0.00,meteobridge,2013-12-04 19:32:00,
2013-12-04 13:34:00,79.2,66.7,29.07,South,180,1.6,5.4,66,0.00,,,0.00,meteobridge,2013-12-04 19:34:00,
2013-12-04 13:35:00,79.2,66.4,29.07,SW,225,0.7,1.6,65,0.00,,,0.00,meteobridge,2013-12-04 19:35:00,
2013-12-04 13:36:00,79.2,66.4,29.07,SSW,203,0.0,1.6,65,0.00,,,0.00,meteobridge,2013-12-04 19:36:00,
2013-12-04 13:39:00,79.9,67.5,29.06,SE,135,6.9,6.9,66,0.00,,,0.00,meteobridge,2013-12-04 19:39:00,
2013-12-04 13:41:00,80.2,67.8,29.06,South,180,4.5,6.9,66,0.00,,,0.00,meteobridge,2013-12-04 19:41:00,
2013-12-04 13:42:00,80.2,67.5,29.06,SW,225,13.6,13.6,65,0.00,,,0.00,meteobridge,2013-12-04 19:42:00,
2013-12-04 13:43:00,80.2,66.9,29.07,SW,225,13.0,13.6,64,0.00,,,0.00,meteobridge,2013-12-04 19:43:00,
2013-12-04 13:46:00,79.7,66.0,29.07,SW,225,8.3,8.3,63,0.00,,,0.00,meteobridge,2013-12-04 19:46:00,
2013-12-04 13:47:00,79.7,66.0,29.06,SW,225,8.3,8.3,63,0.00,,,0.00,meteobridge,2013-12-04 19:47:00,
2013-12-04 13:48:00,79.3,66.6,29.06,South,180,0.7,8.3,65,0.00,,,0.00,meteobridge,2013-12-04 19:48:00,
2013-12-04 13:52:00,79.7,66.9,29.07,SE,135,3.1,13.0,65,0.00,,,0.00,meteobridge,2013-12-04 19:52:00,
2013-12-04 13:53:00,79.9,67.1,29.07,SSW,203,3.1,13.0,65,0.00,,,0.00,meteobridge,2013-12-04 19:53:00,
2013-12-04 13:54:00,80.1,67.3,29.07,West,270,2.2,3.1,65,0.00,,,0.00,meteobridge,2013-12-04 19:54:00,
2013-12-04 13:56:00,80.4,67.1,29.07,West,270,7.6,9.2,64,0.00,,,0.00,meteobridge,2013-12-04 19:56:00,
2013-12-04 13:58:00,80.2,66.9,29.07,SW,225,5.4,7.6,64,0.00,,,0.00,meteobridge,2013-12-04 19:58:00,
2013-12-04 13:59:00,80.2,67.5,29.07,SW,225,1.6,5.4,65,0.00,,,0.00,meteobridge,2013-12-04 19:59:00,
2013-12-04 14:00:00,80.4,67.6,29.07,SSW,203,1.6,1.6,65,0.00,,,0.00,meteobridge,2013-12-04 20:00:00,
2013-12-04 14:05:00,80.4,67.6,29.07,South,180,0.7,1.6,65,0.00,,,0.00,meteobridge,2013-12-04 20:05:00,
2013-12-04 14:06:00,80.4,67.6,29.06,South,180,0.0,1.6,65,0.00,,,0.00,meteobridge,2013-12-04 20:06:00,
2013-12-04 14:08:00,80.1,67.3,29.06,SE,135,0.7,0.7,65,0.00,,,0.00,meteobridge,2013-12-04 20:08:00,
2013-12-04 14:10:00,79.7,67.3,29.06,SSE,158,0.0,0.7,66,0.00,,,0.00,meteobridge,2013-12-04 20:10:00,
2013-12-04 14:11:00,79.7,67.3,29.06,SSE,158,0.0,0.7,66,0.00,,,0.00,meteobridge,2013-12-04 20:11:00,
2013-12-04 14:12:00,79.7,67.3,29.06,SSE,158,0.0,0.0,66,0.00,,,0.00,meteobridge,2013-12-04 20:12:00,
2013-12-04 14:13:00,79.7,67.3,29.06,SSE,158,0.0,0.0,66,0.00,,,0.00,meteobridge,2013-12-04 20:13:00,
2013-12-04 14:16:00,79.7,67.3,29.06,SSE,158,0.0,0.0,66,0.00,,,0.00,meteobridge,2013-12-04 20:16:00,
2013-12-04 14:17:00,79.7,66.9,29.06,SSW,203,1.6,1.6,65,0.00,,,0.00,meteobridge,2013-12-04 20:17:00,
2013-12-04 14:18:00,79.5,66.7,29.06,South,180,0.7,1.6,65,0.00,,,0.00,meteobridge,2013-12-04 20:18:00,
2013-12-04 14:19:00,79.3,66.9,29.06,SSE,158,0.0,1.6,66,0.00,,,0.00,meteobridge,2013-12-04 20:19:00,
2013-12-04 14:23:00,79.3,66.9,29.07,SW,225,0.7,1.6,66,0.00,,,0.00,meteobridge,2013-12-04 20:23:00,
2013-12-04 14:24:00,79.3,67.5,29.06,SE,135,3.1,3.1,67,0.00,,,0.00,meteobridge,2013-12-04 20:24:00,
2013-12-04 14:25:00,79.3,66.9,29.07,SW,225,9.8,9.8,66,0.00,,,0.00,meteobridge,2013-12-04 20:25:00,
2013-12-04 14:28:00,79.3,66.9,29.07,SE,135,0.7,0.7,66,0.00,,,0.00,meteobridge,2013-12-04 20:28:00,
2013-12-04 14:29:00,79.3,66.9,29.06,South,180,0.0,0.7,66,0.00,,,0.00,meteobridge,2013-12-04 20:29:00,
2013-12-04 14:30:00,79.3,66.9,29.07,SSE,158,0.0,0.7,66,0.00,,,0.00,meteobridge,2013-12-04 20:30:00,
2013-12-04 14:31:00,79.3,66.6,29.07,SE,135,0.0,0.0,65,0.00,,,0.00,meteobridge,2013-12-04 20:31:00,
2013-12-04 14:32:00,79.2,66.4,29.07,SE,135,0.7,0.7,65,0.00,,,0.00,meteobridge,2013-12-04 20:32:00,
2013-12-04 14:33:00,79.2,66.7,29.07,South,180,0.7,0.7,66,0.00,,,0.00,meteobridge,2013-12-04 20:33:00,
2013-12-04 14:34:00,79.2,66.7,29.07,South,180,0.0,0.7,66,0.00,,,0.00,meteobridge,2013-12-04 20:34:00,
2013-12-04 14:35:00,79.2,66.7,29.07,SE,135,0.7,0.7,66,0.00,,,0.00,meteobridge,2013-12-04 20:35:00,
2013-12-04 14:37:00,79.3,66.9,29.06,SW,225,0.0,0.7,66,0.00,,,0.00,meteobridge,2013-12-04 20:37:00,
2013-12-04 14:39:00,79.7,67.3,29.07,South,180,2.2,2.2,66,0.00,,,0.00,meteobridge,2013-12-04 20:39:00,
2013-12-04 14:40:00,79.9,67.5,29.07,SSW,203,0.7,2.2,66,0.00,,,0.00,meteobridge,2013-12-04 20:40:00,
2013-12-04 14:41:00,79.9,67.5,29.07,SSE,158,0.7,2.2,66,0.00,,,0.00,meteobridge,2013-12-04 20:41:00,
2013-12-04 14:42:00,79.9,67.5,29.07,South,180,0.0,0.7,66,0.00,,,0.00,meteobridge,2013-12-04 20:42:00,
2013-12-04 14:45:00,79.9,67.5,29.07,South,180,0.7,6.9,66,0.00,,,0.00,meteobridge,2013-12-04 20:45:00,
2013-12-04 14:46:00,79.9,67.5,29.07,South,180,0.7,3.8,66,0.00,,,0.00,meteobridge,2013-12-04 20:46:00,
2013-12-04 14:47:00,79.9,67.5,29.07,South,180,0.7,0.7,66,0.00,,,0.00,meteobridge,2013-12-04 20:47:00,
2013-12-04 14:48:00,80.1,67.3,29.07,North,0,6.0,6.0,65,0.00,,,0.00,meteobridge,2013-12-04 20:48:00,
2013-12-04 14:50:00,80.1,66.7,29.07,SE,135,0.0,0.0,64,0.00,,,0.00,meteobridge,2013-12-04 20:50:00,
2013-12-04 14:51:00,80.1,66.7,29.07,SE,135,0.0,0.0,64,0.00,,,0.00,meteobridge,2013-12-04 20:51:00,
2013-12-04 14:53:00,80.2,67.5,29.07,South,180,3.1,3.8,65,0.00,,,0.00,meteobridge,2013-12-04 20:53:00,
2013-12-04 14:56:00,80.4,67.6,29.07,SW,225,0.0,4.5,65,0.00,,,0.00,meteobridge,2013-12-04 20:56:00,
2013-12-04 14:57:00,80.4,67.6,29.07,SE,135,0.0,2.2,65,0.00,,,0.00,meteobridge,2013-12-04 20:57:00,
2013-12-04 14:58:00,80.4,67.6,29.07,SW,225,0.0,0.0,65,0.00,,,0.00,meteobridge,2013-12-04 20:58:00,
2013-12-04 15:01:00,79.9,67.5,29.07,South,180,0.0,0.0,66,0.00,,,0.00,meteobridge,2013-12-04 21:01:00,
2013-12-04 15:02:00,79.7,67.8,29.07,South,180,0.7,0.7,67,0.00,,,0.00,meteobridge,2013-12-04 21:02:00,
2013-12-04 15:03:00,79.7,67.8,29.07,South,180,0.7,0.7,67,0.00,,,0.00,meteobridge,2013-12-04 21:03:00,
2013-12-04 15:04:00,79.5,67.6,29.07,South,180,1.6,1.6,67,0.00,,,0.00,meteobridge,2013-12-04 21:04:00,
2013-12-04 15:06:00,79.5,67.6,29.07,SSW,203,0.7,1.6,67,0.00,,,0.00,meteobridge,2013-12-04 21:06:00,
2013-12-04 15:07:00,79.5,67.6,29.07,South,180,0.0,0.7,67,0.00,,,0.00,meteobridge,2013-12-04 21:07:00,
2013-12-04 15:08:00,79.5,67.6,29.07,South,180,0.0,0.7,67,0.00,,,0.00,meteobridge,2013-12-04 21:08:00,
2013-12-04 15:10:00,79.5,68.0,29.07,SSW,203,0.0,0.0,68,0.00,,,0.00,meteobridge,2013-12-04 21:10:00,
2013-12-04 15:11:00,79.3,67.8,29.07,SW,225,0.0,0.0,68,0.00,,,0.00,meteobridge,2013-12-04 21:11:00,
2013-12-04 15:12:00,79.3,67.8,29.07,SW,225,0.0,0.0,68,0.00,,,0.00,meteobridge,2013-12-04 21:12:00,
2013-12-04 15:13:00,79.3,67.5,29.07,SE,135,0.0,0.7,67,0.00,,,0.00,meteobridge,2013-12-04 21:13:00,
2013-12-04 15:15:00,79.2,67.3,29.07,SW,225,0.0,0.0,67,0.00,,,0.00,meteobridge,2013-12-04 21:15:00,
2013-12-04 15:16:00,79.2,67.3,29.06,South,180,0.7,0.7,67,0.00,,,0.00,meteobridge,2013-12-04 21:16:00,
2013-12-04 15:17:00,78.8,66.9,29.07,SE,135,0.0,0.7,67,0.00,,,0.00,meteobridge,2013-12-04 21:17:00,
2013-12-04 15:18:00,78.8,67.3,29.07,SSW,203,0.7,0.7,68,0.00,,,0.00,meteobridge,2013-12-04 21:18:00,
2013-12-04 15:21:00,78.4,67.5,29.07,South,180,1.6,1.6,69,0.00,,,0.00,meteobridge,2013-12-04 21:21:00,
2013-12-04 15:22:00,78.4,67.5,29.07,South,180,0.7,1.6,69,0.00,,,0.00,meteobridge,2013-12-04 21:22:00,
2013-12-04 15:24:00,78.4,67.5,29.08,SW,225,3.1,5.4,69,0.00,,,0.00,meteobridge,2013-12-04 21:24:00,
2013-12-04 15:25:00,78.3,67.3,29.08,West,270,10.7,10.7,69,0.00,,,0.00,meteobridge,2013-12-04 21:25:00,
2013-12-04 15:26:00,78.3,67.3,29.08,SE,135,0.7,10.7,69,0.00,,,0.00,meteobridge,2013-12-04 21:26:00,
2013-12-04 15:29:00,78.3,67.3,29.07,SSW,203,1.6,1.6,69,0.00,,,0.00,meteobridge,2013-12-04 21:29:00,
2013-12-04 15:30:00,78.1,67.1,29.07,SSE,158,0.0,1.6,69,0.00,,,0.00,meteobridge,2013-12-04 21:30:00,
2013-12-04 15:31:00,78.1,67.1,29.07,SSE,158,0.0,1.6,69,0.00,,,0.00,meteobridge,2013-12-04 21:31:00,
2013-12-04 15:32:00,78.1,67.1,29.07,SSE,158,0.0,0.7,69,0.00,,,0.00,meteobridge,2013-12-04 21:32:00,
2013-12-04 15:34:00,78.1,67.5,29.07,SE,135,0.0,1.6,70,0.00,,,0.00,meteobridge,2013-12-04 21:34:00,
2013-12-04 15:36:00,78.1,67.5,29.07,SSE,158,0.0,0.0,70,0.00,,,0.00,meteobridge,2013-12-04 21:36:00,
2013-12-04 15:37:00,78.1,67.5,29.07,South,180,0.0,0.7,70,0.00,,,0.00,meteobridge,2013-12-04 21:37:00,
2013-12-04 15:38:00,77.9,67.3,29.07,SE,135,0.0,0.0,70,0.00,,,0.00,meteobridge,2013-12-04 21:38:00,
2013-12-04 15:41:00,77.9,67.3,29.07,South,180,0.0,6.9,70,0.00,,,0.00,meteobridge,2013-12-04 21:41:00,
2013-12-04 15:42:00,77.7,67.1,29.07,SE,135,0.0,0.0,70,0.00,,,0.00,meteobridge,2013-12-04 21:42:00,
2013-12-04 15:43:00,77.7,67.1,29.06,South,180,0.7,0.7,70,0.00,,,0.00,meteobridge,2013-12-04 21:43:00,
2013-12-04 15:44:00,77.7,67.1,29.06,South,180,0.7,0.7,70,0.00,,,0.00,meteobridge,2013-12-04 21:44:00,
2013-12-04 15:48:00,77.5,67.5,29.07,SW,225,0.0,0.0,71,0.00,,,0.00,meteobridge,2013-12-04 21:48:00,
2013-12-04 15:49:00,77.5,67.5,29.07,SW,225,0.0,0.0,71,0.00,,,0.00,meteobridge,2013-12-04 21:49:00,
2013-12-04 15:50:00,77.5,67.5,29.07,South,180,0.7,0.7,71,0.00,,,0.00,meteobridge,2013-12-04 21:50:00,
2013-12-04 15:54:00,77.4,67.3,29.07,South,180,0.7,0.7,71,0.00,,,0.00,meteobridge,2013-12-04 21:54:00,
2013-12-04 15:55:00,77.4,67.3,29.07,South,180,0.0,0.7,71,0.00,,,0.00,meteobridge,2013-12-04 21:55:00,
2013-12-04 15:56:00,77.4,67.3,29.07,South,180,0.0,0.7,71,0.00,,,0.00,meteobridge,2013-12-04 21:56:00,
2013-12-04 15:57:00,77.2,67.1,29.07,South,180,0.0,0.0,71,0.00,,,0.00,meteobridge,2013-12-04 21:57:00,
2013-12-04 15:58:00,77.2,67.1,29.07,SW,225,0.7,0.7,71,0.00,,,0.00,meteobridge,2013-12-04 21:58:00,
2013-12-04 15:59:00,77.2,67.1,29.08,SE,135,0.7,0.7,71,0.00,,,0.00,meteobridge,2013-12-04 21:59:00,
2013-12-04 16:00:00,77.2,67.1,29.08,SE,135,0.7,0.7,71,0.00,,,0.00,meteobridge,2013-12-04 22:00:00,
2013-12-04 16:01:00,77.2,67.5,29.08,South,180,0.7,0.7,72,0.00,,,0.00,meteobridge,2013-12-04 22:01:00,
2013-12-04 16:03:00,77.0,66.9,29.08,SSW,203,0.7,3.8,71,0.00,,,0.00,meteobridge,2013-12-04 22:03:00,
2013-12-04 16:04:00,77.0,66.9,29.07,South,180,0.7,0.7,71,0.00,,,0.00,meteobridge,2013-12-04 22:04:00,
2013-12-04 16:05:00,77.0,66.9,29.08,South,180,0.0,0.7,71,0.00,,,0.00,meteobridge,2013-12-04 22:05:00,
2013-12-04 16:06:00,77.0,67.3,29.08,South,180,0.0,0.7,72,0.00,,,0.00,meteobridge,2013-12-04 22:06:00,
2013-12-04 16:09:00,76.8,67.1,29.08,South,180,0.7,0.7,72,0.00,,,0.00,meteobridge,2013-12-04 22:09:00,
2013-12-04 16:10:00,76.8,67.1,29.08,South,180,0.0,0.7,72,0.00,,,0.00,meteobridge,2013-12-04 22:10:00,
2013-12-04 16:11:00,76.8,67.1,29.08,SE,135,0.0,0.0,72,0.00,,,0.00,meteobridge,2013-12-04 22:11:00,
2013-12-04 16:12:00,76.8,67.1,29.08,SE,135,0.0,0.0,72,0.00,,,0.00,meteobridge,2013-12-04 22:12:00,
2013-12-04 16:15:00,76.6,66.9,29.08,South,180,0.0,0.7,72,0.00,,,0.00,meteobridge,2013-12-04 22:15:00,
2013-12-04 16:16:00,76.6,66.9,29.08,South,180,0.0,0.7,72,0.00,,,0.00,meteobridge,2013-12-04 22:16:00,
2013-12-04 16:17:00,76.6,66.9,29.08,South,180,0.0,0.0,72,0.00,,,0.00,meteobridge,2013-12-04 22:17:00,
2013-12-04 16:18:00,76.5,66.7,29.08,SSE,158,0.0,0.0,72,0.00,,,0.00,meteobridge,2013-12-04 22:18:00,
2013-12-04 16:20:00,76.5,66.7,29.08,SSE,158,0.0,0.0,72,0.00,,,0.00,meteobridge,2013-12-04 22:20:00,
2013-12-04 16:22:00,76.3,66.9,29.08,SW,225,0.7,0.7,73,0.00,,,0.00,meteobridge,2013-12-04 22:22:00,
2013-12-04 16:23:00,76.3,66.9,29.08,SW,225,0.7,0.7,73,0.00,,,0.00,meteobridge,2013-12-04 22:23:00,
2013-12-04 16:24:00,76.3,66.9,29.08,South,180,0.7,0.7,73,0.00,,,0.00,meteobridge,2013-12-04 22:24:00,
2013-12-04 16:26:00,76.3,66.9,29.08,South,180,0.0,0.0,73,0.00,,,0.00,meteobridge,2013-12-04 22:26:00,
2013-12-04 16:28:00,76.1,66.7,29.09,South,180,0.0,0.0,73,0.00,,,0.00,meteobridge,2013-12-04 22:28:00,
2013-12-04 16:29:00,76.1,66.7,29.09,SW,225,0.0,0.0,73,0.00,,,0.00,meteobridge,2013-12-04 22:29:00,
2013-12-04 16:30:00,75.9,66.6,29.09,SSW,203,0.0,0.0,73,0.00,,,0.00,meteobridge,2013-12-04 22:30:00,
2013-12-04 16:31:00,75.9,67.1,29.09,South,180,0.0,0.0,74,0.00,,,0.00,meteobridge,2013-12-04 22:31:00,
2013-12-04 16:33:00,75.7,66.9,29.09,South,180,0.0,0.0,74,0.00,,,0.00,meteobridge,2013-12-04 22:33:00,
2013-12-04 16:34:00,75.7,66.9,29.09,South,180,0.0,0.0,74,0.00,,,0.00,meteobridge,2013-12-04 22:34:00,
2013-12-04 16:37:00,75.4,66.6,29.09,South,180,0.0,0.0,74,0.00,,,0.00,meteobridge,2013-12-04 22:37:00,
2013-12-04 16:38:00,75.4,66.6,29.09,South,180,0.0,0.0,74,0.00,,,0.00,meteobridge,2013-12-04 22:38:00,
2013-12-04 16:39:00,75.4,66.6,29.09,South,180,0.0,0.0,74,0.00,,,0.00,meteobridge,2013-12-04 22:39:00,
2013-12-04 16:40:00,75.4,66.6,29.09,South,180,0.0,0.0,74,0.00,,,0.00,meteobridge,2013-12-04 22:40:00,
2013-12-04 16:41:00,75.2,66.4,29.09,South,180,0.0,0.0,74,0.00,,,0.00,meteobridge,2013-12-04 22:41:00,
2013-12-04 16:44:00,75.0,66.6,29.10,South,180,0.0,0.0,75,0.00,,,0.00,meteobridge,2013-12-04 22:44:00,
2013-12-04 16:45:00,75.0,66.6,29.09,South,180,0.0,0.0,75,0.00,,,0.00,meteobridge,2013-12-04 22:45:00,
2013-12-04 16:46:00,75.0,66.6,29.09,South,180,0.0,0.0,75,0.00,,,0.00,meteobridge,2013-12-04 22:46:00,
2013-12-04 16:47:00,75.0,66.6,29.09,South,180,0.0,0.0,75,0.00,,,0.00,meteobridge,2013-12-04 22:47:00,
2013-12-04 16:49:00,74.7,66.6,29.10,South,180,0.0,0.0,76,0.00,,,0.00,meteobridge,2013-12-04 22:49:00,
2013-12-04 16:50:00,74.5,66.4,29.10,South,180,0.0,0.0,76,0.00,,,0.00,meteobridge,2013-12-04 22:50:00,
2013-12-04 16:51:00,74.5,66.4,29.10,South,180,0.0,0.0,76,0.00,,,0.00,meteobridge,2013-12-04 22:51:00,
2013-12-04 16:52:00,74.5,66.4,29.10,South,180,0.0,0.0,76,0.00,,,0.00,meteobridge,2013-12-04 22:52:00,
2013-12-04 16:53:00,74.3,66.6,29.10,South,180,0.0,0.0,77,0.00,,,0.00,meteobridge,2013-12-04 22:53:00,
2013-12-04 16:55:00,74.1,66.4,29.09,South,180,0.0,0.0,77,0.00,,,0.00,meteobridge,2013-12-04 22:55:00,
2013-12-04 16:56:00,74.1,66.4,29.10,South,180,0.0,0.0,77,0.00,,,0.00,meteobridge,2013-12-04 22:56:00,
2013-12-04 16:58:00,73.9,66.2,29.10,South,180,0.0,0.0,77,0.00,,,0.00,meteobridge,2013-12-04 22:58:00,
2013-12-04 16:59:00,73.9,66.2,29.10,SE,135,0.0,0.0,77,0.00,,,0.00,meteobridge,2013-12-04 22:59:00,
2013-12-04 17:00:00,73.9,66.2,29.10,SE,135,0.0,0.0,77,0.00,,,0.00,meteobridge,2013-12-04 23:00:00,
2013-12-04 17:02:00,73.8,66.0,29.10,South,180,0.0,0.0,77,0.00,,,0.00,meteobridge,2013-12-04 23:02:00,
2013-12-04 17:03:00,73.8,66.0,29.10,South,180,0.0,0.0,77,0.00,,,0.00,meteobridge,2013-12-04 23:03:00,
2013-12-04 17:04:00,73.8,66.0,29.10,South,180,0.0,0.0,77,0.00,,,0.00,meteobridge,2013-12-04 23:04:00,
2013-12-04 17:05:00,73.6,66.4,29.09,South,180,0.0,0.0,78,0.00,,,0.00,meteobridge,2013-12-04 23:05:00,
2013-12-04 17:06:00,73.6,66.4,29.10,SSE,158,0.0,0.0,78,0.00,,,0.00,meteobridge,2013-12-04 23:06:00,
2013-12-04 17:07:00,73.6,65.8,29.10,South,180,0.0,0.0,77,0.00,,,0.00,meteobridge,2013-12-04 23:07:00,
2013-12-04 17:08:00,73.4,66.2,29.10,South,180,0.0,0.0,78,0.00,,,0.00,meteobridge,2013-12-04 23:08:00,
2013-12-04 17:09:00,73.4,66.2,29.10,South,180,0.0,0.0,78,0.00,,,0.00,meteobridge,2013-12-04 23:09:00,
2013-12-04 17:11:00,73.4,66.2,29.10,South,180,0.0,0.0,78,0.00,,,0.00,meteobridge,2013-12-04 23:11:00,
2013-12-04 17:12:00,73.2,66.0,29.10,South,180,0.0,0.0,78,0.00,,,0.00,meteobridge,2013-12-04 23:12:00,
2013-12-04 17:13:00,73.2,66.0,29.10,South,180,0.0,0.0,78,0.00,,,0.00,meteobridge,2013-12-04 23:13:00,
2013-12-04 17:14:00,73.0,65.8,29.10,South,180,0.0,0.0,78,0.00,,,0.00,meteobridge,2013-12-04 23:14:00,
2013-12-04 17:15:00,73.0,65.8,29.10,South,180,0.0,0.0,78,0.00,,,0.00,meteobridge,2013-12-04 23:15:00,
2013-12-04 17:16:00,73.0,65.8,29.10,South,180,0.0,0.0,78,0.00,,,0.00,meteobridge,2013-12-04 23:16:00,
2013-12-04 17:17:00,72.9,65.7,29.10,South,180,0.0,0.0,78,0.00,,,0.00,meteobridge,2013-12-04 23:17:00,
2013-12-04 17:19:00,72.9,65.7,29.10,South,180,0.0,0.0,78,0.00,,,0.00,meteobridge,2013-12-04 23:19:00,
2013-12-04 17:20:00,72.7,65.5,29.10,South,180,0.0,0.0,78,0.00,,,0.00,meteobridge,2013-12-04 23:20:00,
2013-12-04 17:21:00,72.7,65.5,29.10,South,180,0.0,0.0,78,0.00,,,0.00,meteobridge,2013-12-04 23:21:00,
2013-12-04 17:22:00,72.5,65.7,29.10,South,180,0.0,0.0,79,0.00,,,0.00,meteobridge,2013-12-04 23:22:00,
2013-12-04 17:24:00,72.3,65.5,29.10,South,180,0.0,0.0,79,0.00,,,0.00,meteobridge,2013-12-04 23:24:00,
2013-12-04 17:25:00,72.3,65.5,29.10,South,180,0.0,0.0,79,0.00,,,0.00,meteobridge,2013-12-04 23:25:00,
2013-12-04 17:26:00,72.1,65.3,29.10,South,180,0.0,0.0,79,0.00,,,0.00,meteobridge,2013-12-04 23:26:00,
2013-12-04 17:27:00,72.1,65.3,29.10,South,180,0.0,0.0,79,0.00,,,0.00,meteobridge,2013-12-04 23:27:00,
2013-12-04 17:28:00,72.1,65.3,29.10,South,180,0.0,0.0,79,0.00,,,0.00,meteobridge,2013-12-04 23:28:00,
2013-12-04 17:30:00,72.0,65.1,29.10,South,180,0.0,0.0,79,0.00,,,0.00,meteobridge,2013-12-04 23:30:00,
2013-12-04 17:31:00,72.0,65.1,29.10,South,180,0.0,0.0,79,0.00,,,0.00,meteobridge,2013-12-04 23:31:00,
2013-12-04 17:32:00,72.0,65.1,29.10,South,180,0.0,0.0,79,0.00,,,0.00,meteobridge,2013-12-04 23:32:00,
2013-12-04 17:33:00,71.8,64.9,29.10,South,180,0.0,0.0,79,0.00,,,0.00,meteobridge,2013-12-04 23:33:00,
2013-12-04 17:37:00,71.2,64.8,29.10,South,180,0.0,0.0,80,0.00,,,0.00,meteobridge,2013-12-04 23:37:00,
2013-12-04 17:38:00,71.2,64.8,29.10,South,180,0.0,0.0,80,0.00,,,0.00,meteobridge,2013-12-04 23:38:00,
2013-12-04 17:39:00,71.1,64.6,29.10,South,180,0.0,0.0,80,0.00,,,0.00,meteobridge,2013-12-04 23:39:00,
2013-12-04 17:41:00,70.9,64.4,29.10,South,180,0.0,0.0,80,0.00,,,0.00,meteobridge,2013-12-04 23:41:00,
2013-12-04 17:43:00,70.7,64.6,29.11,West,270,0.0,0.0,81,0.00,,,0.00,meteobridge,2013-12-04 23:43:00,
2013-12-04 17:45:00,70.5,64.4,29.11,West,270,0.0,0.0,81,0.00,,,0.00,meteobridge,2013-12-04 23:45:00,
2013-12-04 17:47:00,70.5,64.4,29.11,West,270,0.0,0.0,81,0.00,,,0.00,meteobridge,2013-12-04 23:47:00,
2013-12-04 17:48:00,70.5,64.4,29.11,West,270,0.0,0.0,81,0.00,,,0.00,meteobridge,2013-12-04 23:48:00,
2013-12-04 17:49:00,70.5,64.4,29.11,West,270,0.0,0.0,81,0.00,,,0.00,meteobridge,2013-12-04 23:49:00,
2013-12-04 17:53:00,70.0,64.2,29.11,West,270,0.0,0.0,82,0.00,,,0.00,meteobridge,2013-12-04 23:53:00,
2013-12-04 17:54:00,69.8,64.0,29.11,West,270,0.0,0.0,82,0.00,,,0.00,meteobridge,2013-12-04 23:54:00,
2013-12-04 17:55:00,69.8,64.0,29.11,West,270,0.0,0.0,82,0.00,,,0.00,meteobridge,2013-12-04 23:55:00,
2013-12-04 17:58:00,69.4,64.0,29.12,West,270,0.0,0.0,83,0.00,,,0.00,meteobridge,2013-12-04 23:58:00,
2013-12-04 17:59:00,69.4,64.0,29.12,West,270,0.0,0.0,83,0.00,,,0.00,meteobridge,2013-12-04 23:59:00,
2013-12-04 18:00:00,69.4,64.0,29.12,West,270,0.0,0.0,83,0.00,,,0.00,meteobridge,2013-12-05 00:00:00,
2013-12-04 18:04:00,69.1,63.7,29.12,West,270,0.0,0.0,83,0.00,,,0.00,meteobridge,2013-12-05 00:04:00,
2013-12-04 18:06:00,68.9,63.5,29.12,West,270,0.0,0.0,83,0.00,,,0.00,meteobridge,2013-12-05 00:06:00,
2013-12-04 18:07:00,68.9,63.5,29.12,West,270,0.0,0.0,83,0.00,,,0.00,meteobridge,2013-12-05 00:07:00,
2013-12-04 18:10:00,68.5,63.5,29.12,West,270,0.0,0.0,84,0.00,,,0.00,meteobridge,2013-12-05 00:10:00,
2013-12-04 18:12:00,68.4,63.7,29.12,West,270,0.0,0.0,85,0.00,,,0.00,meteobridge,2013-12-05 00:12:00,
2013-12-04 18:13:00,68.4,63.7,29.12,West,270,0.0,0.0,85,0.00,,,0.00,meteobridge,2013-12-05 00:13:00,
2013-12-04 18:14:00,68.2,63.5,29.12,West,270,0.0,0.0,85,0.00,,,0.00,meteobridge,2013-12-05 00:14:00,
2013-12-04 18:16:00,68.0,63.3,29.12,West,270,0.0,0.0,85,0.00,,,0.00,meteobridge,2013-12-05 00:16:00,
2013-12-04 18:17:00,67.6,63.0,29.11,West,270,0.0,0.0,85,0.00,,,0.00,meteobridge,2013-12-05 00:17:00,
2013-12-04 18:18:00,67.6,63.0,29.11,West,270,0.0,0.0,85,0.00,,,0.00,meteobridge,2013-12-05 00:18:00,
2013-12-04 18:19:00,67.6,63.0,29.12,West,270,0.0,0.0,85,0.00,,,0.00,meteobridge,2013-12-05 00:19:00,
2013-12-04 18:20:00,67.5,62.8,29.12,West,270,0.0,0.0,85,0.00,,,0.00,meteobridge,2013-12-05 00:20:00,
2013-12-04 18:22:00,67.3,63.0,29.12,West,270,0.0,0.0,86,0.00,,,0.00,meteobridge,2013-12-05 00:22:00,
2013-12-04 18:23:00,67.3,63.0,29.12,West,270,0.0,0.0,86,0.00,,,0.00,meteobridge,2013-12-05 00:23:00,
2013-12-04 18:24:00,67.3,63.0,29.12,West,270,0.0,0.0,86,0.00,,,0.00,meteobridge,2013-12-05 00:24:00,
2013-12-04 18:25:00,67.1,62.8,29.12,West,270,0.0,0.0,86,0.00,,,0.00,meteobridge,2013-12-05 00:25:00,
2013-12-04 18:27:00,66.9,63.0,29.12,West,270,0.0,0.0,87,0.00,,,0.00,meteobridge,2013-12-05 00:27:00,
2013-12-04 18:28:00,66.9,63.0,29.12,West,270,0.0,0.0,87,0.00,,,0.00,meteobridge,2013-12-05 00:28:00,
2013-12-04 18:30:00,66.7,62.8,29.12,West,270,0.0,0.0,87,0.00,,,0.00,meteobridge,2013-12-05 00:30:00,
2013-12-04 18:32:00,66.6,62.6,29.12,West,270,0.0,0.0,87,0.00,,,0.00,meteobridge,2013-12-05 00:32:00,
2013-12-04 18:33:00,66.6,63.0,29.12,West,270,0.0,0.0,88,0.00,,,0.00,meteobridge,2013-12-05 00:33:00,
2013-12-04 18:34:00,66.6,63.0,29.12,West,270,0.0,0.0,88,0.00,,,0.00,meteobridge,2013-12-05 00:34:00,
2013-12-04 18:35:00,66.4,62.8,29.12,West,270,0.0,0.0,88,0.00,,,0.00,meteobridge,2013-12-05 00:35:00,
2013-12-04 18:36:00,66.4,62.8,29.12,West,270,0.0,0.0,88,0.00,,,0.00,meteobridge,2013-12-05 00:36:00,
2013-12-04 18:38:00,66.2,62.6,29.12,West,270,0.0,0.0,88,0.00,,,0.00,meteobridge,2013-12-05 00:38:00,
2013-12-04 18:39:00,66.2,62.6,29.13,West,270,0.0,0.0,88,0.00,,,0.00,meteobridge,2013-12-05 00:39:00,
2013-12-04 18:40:00,66.0,62.4,29.12,West,270,0.0,0.0,88,0.00,,,0.00,meteobridge,2013-12-05 00:40:00,
2013-12-04 18:42:00,65.8,62.2,29.12,West,270,0.0,0.0,88,0.00,,,0.00,meteobridge,2013-12-05 00:42:00,
2013-12-04 18:44:00,65.8,62.2,29.13,West,270,0.0,0.0,88,0.00,,,0.00,meteobridge,2013-12-05 00:44:00,
2013-12-04 18:46:00,65.8,62.4,29.13,West,270,0.0,0.0,89,0.00,,,0.00,meteobridge,2013-12-05 00:46:00,
2013-12-04 18:47:00,65.8,62.4,29.13,West,270,0.0,0.0,89,0.00,,,0.00,meteobridge,2013-12-05 00:47:00,
2013-12-04 18:49:00,65.8,62.4,29.13,West,270,0.0,0.0,89,0.00,,,0.00,meteobridge,2013-12-05 00:49:00,
2013-12-04 18:50:00,65.8,62.4,29.13,West,270,0.0,0.0,89,0.00,,,0.00,meteobridge,2013-12-05 00:50:00,
2013-12-04 18:51:00,65.8,62.4,29.13,West,270,0.0,0.0,89,0.00,,,0.00,meteobridge,2013-12-05 00:51:00,
2013-12-04 18:52:00,65.3,62.1,29.13,West,270,0.0,0.0,89,0.00,,,0.00,meteobridge,2013-12-05 00:52:00,
2013-12-04 18:55:00,65.1,61.9,29.14,West,270,0.0,0.0,89,0.00,,,0.00,meteobridge,2013-12-05 00:55:00,
2013-12-04 18:56:00,64.9,61.9,29.13,West,270,0.0,0.0,90,0.00,,,0.00,meteobridge,2013-12-05 00:56:00,
2013-12-04 18:58:00,64.8,61.7,29.13,West,270,0.0,0.0,90,0.00,,,0.00,meteobridge,2013-12-05 00:58:00,
2013-12-04 18:59:00,64.8,61.7,29.13,West,270,0.0,0.0,90,0.00,,,0.00,meteobridge,2013-12-05 00:59:00,
2013-12-04 19:00:00,64.8,61.7,29.14,West,270,0.0,0.0,90,0.00,,,0.00,meteobridge,2013-12-05 01:00:00,
2013-12-04 19:02:00,64.8,61.7,29.13,West,270,0.0,0.0,90,0.00,,,0.00,meteobridge,2013-12-05 01:02:00,
2013-12-04 19:03:00,64.8,61.7,29.13,West,270,0.0,0.0,90,0.00,,,0.00,meteobridge,2013-12-05 01:03:00,
2013-12-04 19:05:00,64.8,61.7,29.13,West,270,0.0,0.0,90,0.00,,,0.00,meteobridge,2013-12-05 01:05:00,
2013-12-04 19:06:00,64.8,61.7,29.13,West,270,0.0,0.0,90,0.00,,,0.00,meteobridge,2013-12-05 01:06:00,
2013-12-04 19:07:00,64.8,61.7,29.13,West,270,0.0,0.0,90,0.00,,,0.00,meteobridge,2013-12-05 01:07:00,
2013-12-04 19:08:00,64.4,62.1,29.14,West,270,0.0,0.0,92,0.00,,,0.00,meteobridge,2013-12-05 01:08:00,
2013-12-04 19:10:00,64.2,62.2,29.14,NW,315,0.0,0.0,93,0.00,,,0.00,meteobridge,2013-12-05 01:10:00,
2013-12-04 19:11:00,64.2,62.2,29.14,NW,315,0.0,0.0,93,0.00,,,0.00,meteobridge,2013-12-05 01:11:00,
2013-12-04 19:12:00,64.4,62.4,29.15,NW,315,0.7,0.7,93,0.00,,,0.00,meteobridge,2013-12-05 01:12:00,
2013-12-04 19:13:00,64.4,62.6,29.15,NW,315,1.6,1.6,94,0.00,,,0.00,meteobridge,2013-12-05 01:13:00,
2013-12-04 19:16:00,64.6,62.8,29.14,NW,315,3.1,3.1,94,0.00,,,0.00,meteobridge,2013-12-05 01:16:00,
2013-12-04 19:17:00,64.6,62.4,29.15,NW,315,3.1,3.8,93,0.00,,,0.00,meteobridge,2013-12-05 01:17:00,
2013-12-04 19:18:00,64.8,62.4,29.15,North,0,2.2,3.8,92,0.00,,,0.00,meteobridge,2013-12-05 01:18:00,
2013-12-04 19:20:00,64.9,61.7,29.15,North,0,0.0,3.8,89,0.00,,,0.00,meteobridge,2013-12-05 01:20:00,
2013-12-04 19:21:00,64.9,61.3,29.15,North,0,0.7,3.8,88,0.00,,,0.00,meteobridge,2013-12-05 01:21:00,
2013-12-04 19:22:00,64.9,61.3,29.15,North,0,0.0,0.7,88,0.00,,,0.00,meteobridge,2013-12-05 01:22:00,
2013-12-04 19:24:00,65.1,61.5,29.15,NW,315,0.0,0.0,88,0.00,,,0.00,meteobridge,2013-12-05 01:24:00,
2013-12-04 19:25:00,65.1,61.2,29.15,North,0,0.7,0.7,87,0.00,,,0.00,meteobridge,2013-12-05 01:25:00,
2013-12-04 19:26:00,65.1,60.4,29.15,NW,315,0.0,2.2,85,0.00,,,0.00,meteobridge,2013-12-05 01:26:00,
2013-12-04 19:27:00,65.1,60.4,29.15,North,0,0.0,2.2,85,0.00,,,0.00,meteobridge,2013-12-05 01:27:00,
2013-12-04 19:29:00,65.1,60.4,29.15,NW,315,0.7,0.7,85,0.00,,,0.00,meteobridge,2013-12-05 01:29:00,
2013-12-04 19:32:00,65.1,59.2,29.15,North,0,0.0,0.7,81,0.00,,,0.00,meteobridge,2013-12-05 01:32:00,
2013-12-04 19:34:00,65.1,59.2,29.15,SW,225,0.0,0.7,81,0.00,,,0.00,meteobridge,2013-12-05 01:34:00,
2013-12-04 19:35:00,65.1,58.8,29.15,North,0,3.1,3.1,80,0.00,,,0.00,meteobridge,2013-12-05 01:35:00,
2013-12-04 19:38:00,64.9,57.9,29.15,North,0,0.7,0.7,78,0.00,,,0.00,meteobridge,2013-12-05 01:38:00,
2013-12-04 19:39:00,64.9,57.6,29.15,North,0,0.7,0.7,77,0.00,,,0.00,meteobridge,2013-12-05 01:39:00,
2013-12-04 19:40:00,64.9,56.5,29.15,West,270,3.8,3.8,74,0.00,,,0.00,meteobridge,2013-12-05 01:40:00,
2013-12-04 19:41:00,64.9,56.5,29.15,North,0,0.0,3.8,74,0.00,,,0.00,meteobridge,2013-12-05 01:41:00,
2013-12-04 19:44:00,64.8,56.3,29.15,SW,225,0.0,0.7,74,0.00,,,0.00,meteobridge,2013-12-05 01:44:00,
2013-12-04 19:46:00,64.8,56.3,29.16,NW,315,0.0,0.0,74,0.00,,,0.00,meteobridge,2013-12-05 01:46:00,
2013-12-04 19:47:00,64.8,56.3,29.16,NW,315,0.0,0.0,74,0.00,,,0.00,meteobridge,2013-12-05 01:47:00,
2013-12-04 19:48:00,64.8,55.9,29.16,West,270,0.0,0.0,73,0.00,,,0.00,meteobridge,2013-12-05 01:48:00,
2013-12-04 19:49:00,64.6,55.8,29.16,South,180,3.1,3.1,73,0.00,,,0.00,meteobridge,2013-12-05 01:49:00,
2013-12-04 19:50:00,64.6,55.4,29.16,NW,315,0.7,3.1,72,0.00,,,0.00,meteobridge,2013-12-05 01:50:00,
2013-12-04 19:52:00,64.6,55.0,29.16,SW,225,1.6,1.6,71,0.00,,,0.00,meteobridge,2013-12-05 01:52:00,
2013-12-04 19:53:00,64.4,54.3,29.16,NW,315,2.2,2.2,70,0.00,,,0.00,meteobridge,2013-12-05 01:53:00,
2013-12-04 19:55:00,64.4,54.3,29.16,NW,315,3.1,3.1,70,0.00,,,0.00,meteobridge,2013-12-05 01:55:00,
2013-12-04 19:56:00,64.2,54.3,29.17,SW,225,1.6,3.1,70,0.00,,,0.00,meteobridge,2013-12-05 01:56:00,
2013-12-04 19:57:00,64.2,53.8,29.17,SW,225,3.1,3.1,69,0.00,,,0.00,meteobridge,2013-12-05 01:57:00,
2013-12-04 19:58:00,64.0,53.6,29.16,NE,45,4.5,4.5,69,0.00,,,0.00,meteobridge,2013-12-05 01:58:00,
2013-12-04 20:00:00,63.9,53.4,29.17,North,0,0.0,4.5,69,0.00,,,0.00,meteobridge,2013-12-05 02:00:00,
2013-12-04 20:01:00,63.9,53.4,29.17,North,0,0.0,0.0,69,0.00,,,0.00,meteobridge,2013-12-05 02:01:00,
2013-12-04 20:02:00,63.9,53.4,29.17,North,0,0.0,0.0,69,0.00,,,0.00,meteobridge,2013-12-05 02:02:00,
2013-12-04 20:03:00,63.9,53.4,29.17,North,0,0.0,0.0,69,0.00,,,0.00,meteobridge,2013-12-05 02:03:00,
2013-12-04 20:04:00,63.9,53.4,29.16,North,0,0.0,0.0,69,0.00,,,0.00,meteobridge,2013-12-05 02:04:00,
2013-12-04 20:05:00,63.9,53.4,29.17,North,0,0.0,0.0,69,0.00,,,0.00,meteobridge,2013-12-05 02:05:00,
2013-12-04 20:06:00,63.9,53.4,29.17,North,0,0.0,0.0,69,0.00,,,0.00,meteobridge,2013-12-05 02:06:00,
2013-12-04 20:08:00,63.0,53.1,29.17,West,270,0.7,0.7,70,0.00,,,0.00,meteobridge,2013-12-05 02:08:00,
2013-12-04 20:09:00,63.0,53.1,29.17,North,0,0.0,0.7,70,0.00,,,0.00,meteobridge,2013-12-05 02:09:00,
2013-12-04 20:11:00,62.6,53.1,29.17,SW,225,1.6,1.6,71,0.00,,,0.00,meteobridge,2013-12-05 02:11:00,
2013-12-04 20:12:00,62.2,52.7,29.17,WNW,293,3.1,3.1,71,0.00,,,0.00,meteobridge,2013-12-05 02:12:00,
2013-12-04 20:13:00,62.2,52.7,29.17,NW,315,2.2,3.1,71,0.00,,,0.00,meteobridge,2013-12-05 02:13:00,
2013-12-04 20:15:00,62.1,52.5,29.18,North,0,3.1,3.1,71,0.00,,,0.00,meteobridge,2013-12-05 02:15:00,
2013-12-04 20:17:00,61.7,52.5,29.17,NW,315,3.1,3.1,72,0.00,,,0.00,meteobridge,2013-12-05 02:17:00,
2013-12-04 20:18:00,61.5,52.3,29.18,North,0,2.2,3.8,72,0.00,,,0.00,meteobridge,2013-12-05 02:18:00,
2013-12-04 20:19:00,61.3,52.2,29.17,North,0,3.8,3.8,72,0.00,,,0.00,meteobridge,2013-12-05 02:19:00,
2013-12-04 20:20:00,61.2,52.5,29.17,North,0,0.7,3.8,73,0.00,,,0.00,meteobridge,2013-12-05 02:20:00,
2013-12-04 20:21:00,61.2,52.5,29.18,North,0,0.7,0.7,73,0.00,,,0.00,meteobridge,2013-12-05 02:21:00,
2013-12-04 20:23:00,60.8,52.2,29.18,SE,135,0.0,3.8,73,0.00,,,0.00,meteobridge,2013-12-05 02:23:00,
2013-12-04 20:24:00,60.8,52.2,29.18,SE,135,0.0,3.8,73,0.00,,,0.00,meteobridge,2013-12-05 02:24:00,
2013-12-04 20:26:00,60.6,52.0,29.18,West,270,0.7,3.8,73,0.00,,,0.00,meteobridge,2013-12-05 02:26:00,
2013-12-04 20:27:00,60.6,52.0,29.18,NW,315,3.8,3.8,73,0.00,,,0.00,meteobridge,2013-12-05 02:27:00,
2013-12-04 20:28:00,60.3,51.6,29.18,NW,315,0.7,3.8,73,0.00,,,0.00,meteobridge,2013-12-05 02:28:00,
2013-12-04 20:29:00,60.3,52.0,29.18,NW,315,2.2,3.1,74,0.00,,,0.00,meteobridge,2013-12-05 02:29:00,
2013-12-04 20:30:00,60.3,52.0,29.18,West,270,0.0,2.2,74,0.00,,,0.00,meteobridge,2013-12-05 02:30:00,
2013-12-04 20:33:00,60.1,51.8,29.18,NW,315,0.7,0.7,74,0.00,,,0.00,meteobridge,2013-12-05 02:33:00,
2013-12-04 20:34:00,59.9,51.6,29.18,NW,315,0.7,1.6,74,0.00,,,0.00,meteobridge,2013-12-05 02:34:00,
2013-12-04 20:35:00,59.7,51.4,29.18,NW,315,0.0,1.6,74,0.00,,,0.00,meteobridge,2013-12-05 02:35:00,
2013-12-04 20:36:00,59.7,51.4,29.18,NW,315,0.0,1.6,74,0.00,,,0.00,meteobridge,2013-12-05 02:36:00,
2013-12-04 20:40:00,59.4,51.1,29.19,NW,315,6.9,6.9,74,0.00,,,0.00,meteobridge,2013-12-05 02:40:00,
2013-12-04 20:41:00,59.4,51.1,29.19,NW,315,6.9,6.9,74,0.00,,,0.00,meteobridge,2013-12-05 02:41:00,
2013-12-04 20:43:00,59.2,51.3,29.19,SW,225,0.7,4.5,75,0.00,,,0.00,meteobridge,2013-12-05 02:43:00,
2013-12-04 20:44:00,59.0,50.7,29.19,NE,45,6.9,6.9,74,0.00,,,0.00,meteobridge,2013-12-05 02:44:00,
2013-12-04 20:46:00,58.8,50.5,29.19,North,0,3.1,6.9,74,0.00,,,0.00,meteobridge,2013-12-05 02:46:00,
2013-12-04 20:47:00,58.8,50.9,29.19,SSE,158,3.1,3.1,75,0.00,,,0.00,meteobridge,2013-12-05 02:47:00,
2013-12-04 20:48:00,58.6,50.7,29.19,NE,45,0.0,3.1,75,0.00,,,0.00,meteobridge,2013-12-05 02:48:00,
2013-12-04 20:49:00,58.6,50.7,29.19,West,270,2.2,2.2,75,0.00,,,0.00,meteobridge,2013-12-05 02:49:00,
2013-12-04 20:51:00,58.5,50.5,29.19,North,0,5.4,5.4,75,0.00,,,0.00,meteobridge,2013-12-05 02:51:00,
2013-12-04 20:52:00,58.5,50.5,29.19,ENE,68,0.7,5.4,75,0.00,,,0.00,meteobridge,2013-12-05 02:52:00,
2013-12-04 20:53:00,58.5,50.5,29.19,NW,315,2.2,5.4,75,0.00,,,0.00,meteobridge,2013-12-05 02:53:00,
2013-12-04 20:55:00,58.3,50.7,29.19,NW,315,0.0,0.7,76,0.00,,,0.00,meteobridge,2013-12-05 02:55:00,
2013-12-04 20:56:00,58.3,50.7,29.19,NW,315,0.0,0.7,76,0.00,,,0.00,meteobridge,2013-12-05 02:56:00,
2013-12-04 20:57:00,58.3,50.7,29.19,NW,315,1.6,1.6,76,0.00,,,0.00,meteobridge,2013-12-05 02:57:00,
2013-12-04 20:58:00,58.1,50.5,29.19,SW,225,0.7,2.2,76,0.00,,,0.00,meteobridge,2013-12-05 02:58:00,
2013-12-04 21:02:00,57.9,50.4,29.20,NW,315,0.0,0.0,76,0.00,,,0.00,meteobridge,2013-12-05 03:02:00,
2013-12-04 21:03:00,57.9,50.4,29.19,NW,315,0.0,0.0,76,0.00,,,0.00,meteobridge,2013-12-05 03:03:00,
2013-12-04 21:04:00,57.9,50.4,29.19,NW,315,0.0,0.0,76,0.00,,,0.00,meteobridge,2013-12-05 03:04:00,
2013-12-04 21:05:00,57.9,50.4,29.19,NW,315,0.0,0.0,76,0.00,,,0.00,meteobridge,2013-12-05 03:05:00,
2013-12-04 21:07:00,57.9,50.4,29.20,NW,315,0.0,0.0,76,0.00,,,0.00,meteobridge,2013-12-05 03:07:00,
2013-12-04 21:08:00,57.4,50.2,29.20,North,0,0.0,0.0,77,0.00,,,0.00,meteobridge,2013-12-05 03:08:00,
2013-12-04 21:09:00,57.4,50.2,29.21,West,270,0.0,0.0,77,0.00,,,0.00,meteobridge,2013-12-05 03:09:00,
2013-12-04 21:11:00,57.2,50.4,29.21,North,0,2.2,3.1,78,0.00,,,0.00,meteobridge,2013-12-05 03:11:00,
2013-12-04 21:12:00,57.0,50.2,29.21,North,0,0.7,3.1,78,0.00,,,0.00,meteobridge,2013-12-05 03:12:00,
2013-12-04 21:14:00,56.8,50.0,29.21,NW,315,0.7,2.2,78,0.00,,,0.00,meteobridge,2013-12-05 03:14:00,
2013-12-04 21:15:00,56.8,50.0,29.21,West,270,0.0,2.2,78,0.00,,,0.00,meteobridge,2013-12-05 03:15:00,
2013-12-04 21:16:00,56.8,50.0,29.21,North,0,0.7,0.7,78,0.00,,,0.00,meteobridge,2013-12-05 03:16:00,
2013-12-04 21:17:00,56.8,50.0,29.21,North,0,0.7,0.7,78,0.00,,,0.00,meteobridge,2013-12-05 03:17:00,
2013-12-04 21:18:00,56.7,49.8,29.21,West,270,0.0,1.6,78,0.00,,,0.00,meteobridge,2013-12-05 03:18:00,
2013-12-04 21:21:00,56.5,50.0,29.22,NW,315,2.2,2.2,79,0.00,,,0.00,meteobridge,2013-12-05 03:21:00,
2013-12-04 21:22:00,56.5,50.0,29.22,North,0,3.8,3.8,79,0.00,,,0.00,meteobridge,2013-12-05 03:22:00,
2013-12-04 21:23:00,56.3,49.8,29.21,West,270,2.2,3.8,79,0.00,,,0.00,meteobridge,2013-12-05 03:23:00,
2013-12-04 21:24:00,56.3,49.8,29.22,North,0,2.2,3.8,79,0.00,,,0.00,meteobridge,2013-12-05 03:24:00,
2013-12-04 21:27:00,56.1,49.6,29.21,North,0,3.1,3.8,79,0.00,,,0.00,meteobridge,2013-12-05 03:27:00,
2013-12-04 21:29:00,56.1,49.6,29.22,SW,225,2.2,4.5,79,0.00,,,0.00,meteobridge,2013-12-05 03:29:00,
2013-12-04 21:30:00,55.9,49.5,29.23,SSE,158,2.2,3.1,79,0.00,,,0.00,meteobridge,2013-12-05 03:30:00,
2013-12-04 21:33:00,55.9,49.5,29.22,NW,315,1.6,3.8,79,0.00,,,0.00,meteobridge,2013-12-05 03:33:00,
2013-12-04 21:34:00,55.8,49.3,29.23,West,270,0.7,1.6,79,0.00,,,0.00,meteobridge,2013-12-05 03:34:00,
2013-12-04 21:35:00,55.8,49.3,29.23,NNW,338,0.7,0.7,79,0.00,,,0.00,meteobridge,2013-12-05 03:35:00,
2013-12-04 21:38:00,55.6,49.1,29.23,West,270,4.5,4.5,79,0.00,,,0.00,meteobridge,2013-12-05 03:38:00,
2013-12-04 21:39:00,55.6,49.1,29.23,NW,315,4.5,4.5,79,0.00,,,0.00,meteobridge,2013-12-05 03:39:00,
2013-12-04 21:40:00,55.4,48.7,29.23,East,90,0.7,6.0,78,0.00,,,0.00,meteobridge,2013-12-05 03:40:00,
2013-12-04 21:41:00,55.4,48.7,29.23,East,90,1.6,6.0,78,0.00,,,0.00,meteobridge,2013-12-05 03:41:00,
2013-12-04 21:44:00,55.2,48.6,29.22,NW,315,1.6,4.5,78,0.00,,,0.00,meteobridge,2013-12-05 03:44:00,
2013-12-04 21:47:00,55.0,48.4,29.23,NW,315,1.6,1.6,78,0.00,,,0.00,meteobridge,2013-12-05 03:47:00,
2013-12-04 21:48:00,55.0,48.4,29.22,NW,315,0.0,1.6,78,0.00,,,0.00,meteobridge,2013-12-05 03:48:00,
2013-12-04 21:49:00,54.9,48.6,29.22,South,180,0.7,0.7,79,0.00,,,0.00,meteobridge,2013-12-05 03:49:00,
2013-12-04 21:50:00,54.9,48.6,29.22,North,0,1.6,1.6,79,0.00,,,0.00,meteobridge,2013-12-05 03:50:00,
2013-12-04 21:53:00,54.7,48.4,29.22,NW,315,1.6,3.8,79,0.00,,,0.00,meteobridge,2013-12-05 03:53:00,
2013-12-04 21:54:00,54.7,48.4,29.23,West,270,0.7,3.1,79,0.00,,,0.00,meteobridge,2013-12-05 03:54:00,
2013-12-04 21:57:00,54.3,48.0,29.23,SW,225,1.6,5.4,79,0.00,,,0.00,meteobridge,2013-12-05 03:57:00,
2013-12-04 21:58:00,54.3,48.2,29.23,WNW,293,5.4,5.4,80,0.00,,,0.00,meteobridge,2013-12-05 03:58:00,
2013-12-04 21:59:00,54.1,47.8,29.23,NW,315,0.0,5.4,79,0.00,,,0.00,meteobridge,2013-12-05 03:59:00,
2013-12-04 22:00:00,54.1,47.8,29.23,NW,315,0.0,5.4,79,0.00,,,0.00,meteobridge,2013-12-05 04:00:00,
2013-12-04 22:03:00,54.1,47.8,29.23,NW,315,0.0,0.0,79,0.00,,,0.00,meteobridge,2013-12-05 04:03:00,
2013-12-04 22:04:00,54.1,47.8,29.23,NW,315,0.0,0.0,79,0.00,,,0.00,meteobridge,2013-12-05 04:04:00,
2013-12-04 22:05:00,54.1,47.8,29.23,NW,315,0.0,0.0,79,0.00,,,0.00,meteobridge,2013-12-05 04:05:00,
2013-12-04 22:06:00,54.1,47.8,29.23,NW,315,0.0,0.0,79,0.00,,,0.00,meteobridge,2013-12-05 04:06:00,
2013-12-04 22:08:00,53.6,47.3,29.23,North,0,0.0,0.0,79,0.00,,,0.00,meteobridge,2013-12-05 04:08:00,
2013-12-04 22:10:00,53.4,47.1,29.23,NW,315,0.7,1.6,79,0.00,,,0.00,meteobridge,2013-12-05 04:10:00,
2013-12-04 22:11:00,53.4,47.1,29.23,NW,315,0.7,1.6,79,0.00,,,0.00,meteobridge,2013-12-05 04:11:00,
2013-12-04 22:12:00,53.2,46.9,29.23,NW,315,2.2,2.2,79,0.00,,,0.00,meteobridge,2013-12-05 04:12:00,
2013-12-04 22:14:00,53.2,46.9,29.23,North,0,3.1,3.1,79,0.00,,,0.00,meteobridge,2013-12-05 04:14:00,
2013-12-04 22:16:00,53.1,46.8,29.23,North,0,4.5,4.5,79,0.00,,,0.00,meteobridge,2013-12-05 04:16:00,
2013-12-04 22:17:00,53.1,46.8,29.23,SSE,158,0.0,4.5,79,0.00,,,0.00,meteobridge,2013-12-05 04:17:00,
2013-12-04 22:18:00,53.1,46.8,29.23,North,0,0.7,3.1,79,0.00,,,0.00,meteobridge,2013-12-05 04:18:00,
2013-12-04 22:20:00,52.9,46.6,29.24,North,0,1.6,2.2,79,0.00,,,0.00,meteobridge,2013-12-05 04:20:00,
2013-12-04 22:21:00,52.9,46.6,29.23,North,0,3.8,3.8,79,0.00,,,0.00,meteobridge,2013-12-05 04:21:00,
2013-12-04 22:23:00,52.7,46.4,29.24,North,0,3.1,5.4,79,0.00,,,0.00,meteobridge,2013-12-05 04:23:00,
2013-12-04 22:24:00,52.7,46.4,29.24,NW,315,0.0,5.4,79,0.00,,,0.00,meteobridge,2013-12-05 04:24:00,
2013-12-04 22:25:00,52.5,46.2,29.24,North,0,0.7,0.7,79,0.00,,,0.00,meteobridge,2013-12-05 04:25:00,
2013-12-04 22:26:00,52.5,46.2,29.25,NNW,338,1.6,1.6,79,0.00,,,0.00,meteobridge,2013-12-05 04:26:00,
2013-12-04 22:27:00,52.5,46.2,29.25,NW,315,3.1,3.1,79,0.00,,,0.00,meteobridge,2013-12-05 04:27:00,
2013-12-04 22:28:00,52.5,46.2,29.24,NE,45,3.8,3.8,79,0.00,,,0.00,meteobridge,2013-12-05 04:28:00,
2013-12-04 22:29:00,52.3,46.0,29.24,NW,315,0.7,3.8,79,0.00,,,0.00,meteobridge,2013-12-05 04:29:00,
2013-12-04 22:30:00,52.3,46.0,29.24,South,180,0.0,3.8,79,0.00,,,0.00,meteobridge,2013-12-05 04:30:00,
2013-12-04 22:31:00,52.3,46.0,29.25,North,0,1.6,1.6,79,0.00,,,0.00,meteobridge,2013-12-05 04:31:00,
2013-12-04 22:33:00,52.3,46.0,29.24,NW,315,0.0,3.1,79,0.00,,,0.00,meteobridge,2013-12-05 04:33:00,
2013-12-04 22:35:00,52.2,45.9,29.25,North,0,0.0,0.0,79,0.00,,,0.00,meteobridge,2013-12-05 04:35:00,
2013-12-04 22:36:00,52.2,45.9,29.24,West,270,0.0,0.0,79,0.00,,,0.00,meteobridge,2013-12-05 04:36:00,
2013-12-04 22:37:00,52.2,45.9,29.25,NW,315,0.0,0.0,79,0.00,,,0.00,meteobridge,2013-12-05 04:37:00,
2013-12-04 22:38:00,52.2,46.2,29.25,North,0,0.0,0.0,80,0.00,,,0.00,meteobridge,2013-12-05 04:38:00,
2013-12-04 22:39:00,52.2,45.9,29.25,North,0,0.0,0.0,79,0.00,,,0.00,meteobridge,2013-12-05 04:39:00,
2013-12-04 22:40:00,52.2,46.2,29.24,West,270,0.0,0.0,80,0.00,,,0.00,meteobridge,2013-12-05 04:40:00,
2013-12-04 22:41:00,52.0,46.0,29.24,North,0,2.2,2.2,80,0.00,,,0.00,meteobridge,2013-12-05 04:41:00,
2013-12-04 22:42:00,52.0,46.0,29.24,North,0,1.6,2.2,80,0.00,,,0.00,meteobridge,2013-12-05 04:42:00,
2013-12-04 22:45:00,52.0,46.0,29.24,North,0,0.0,2.2,80,0.00,,,0.00,meteobridge,2013-12-05 04:45:00,
2013-12-04 22:47:00,52.0,46.0,29.23,NW,315,0.0,0.0,80,0.00,,,0.00,meteobridge,2013-12-05 04:47:00,
2013-12-04 22:48:00,52.0,46.0,29.23,North,0,0.0,0.0,80,0.00,,,0.00,meteobridge,2013-12-05 04:48:00,
2013-12-04 22:50:00,51.8,45.9,29.24,North,0,1.6,1.6,80,0.00,,,0.00,meteobridge,2013-12-05 04:50:00,
2013-12-04 22:51:00,51.8,45.9,29.24,North,0,0.0,1.6,80,0.00,,,0.00,meteobridge,2013-12-05 04:51:00,
2013-12-04 22:52:00,51.8,45.9,29.24,North,0,0.0,0.0,80,0.00,,,0.00,meteobridge,2013-12-05 04:52:00,
2013-12-04 22:53:00,51.8,45.9,29.24,North,0,0.0,0.0,80,0.00,,,0.00,meteobridge,2013-12-05 04:53:00,
2013-12-04 22:56:00,51.6,45.7,29.24,NW,315,0.7,1.6,80,0.00,,,0.00,meteobridge,2013-12-05 04:56:00,
2013-12-04 22:57:00,51.4,45.5,29.24,NW,315,3.1,3.1,80,0.00,,,0.00,meteobridge,2013-12-05 04:57:00,
2013-12-04 22:58:00,51.4,45.5,29.24,West,270,3.1,3.1,80,0.00,,,0.00,meteobridge,2013-12-05 04:58:00,
2013-12-04 22:59:00,51.4,45.5,29.24,NW,315,0.7,3.1,80,0.00,,,0.00,meteobridge,2013-12-05 04:59:00,
2013-12-04 23:00:00,51.4,45.5,29.25,NE,45,0.7,0.7,80,0.00,,,0.00,meteobridge,2013-12-05 05:00:00,
2013-12-04 23:01:00,51.4,45.5,29.25,NE,45,0.7,0.7,80,0.00,,,0.00,meteobridge,2013-12-05 05:01:00,
2013-12-04 23:02:00,51.4,45.5,29.25,NE,45,0.7,0.7,80,0.00,,,0.00,meteobridge,2013-12-05 05:02:00,
2013-12-04 23:06:00,51.1,45.1,29.25,NW,315,2.2,2.2,80,0.00,,,0.00,meteobridge,2013-12-05 05:06:00,
2013-12-04 23:07:00,51.1,45.1,29.25,NW,315,2.2,2.2,80,0.00,,,0.00,meteobridge,2013-12-05 05:07:00,
2013-12-04 23:08:00,51.1,45.1,29.25,West,270,0.7,2.2,80,0.00,,,0.00,meteobridge,2013-12-05 05:08:00,
2013-12-04 23:10:00,50.9,45.0,29.25,SW,225,0.7,2.2,80,0.00,,,0.00,meteobridge,2013-12-05 05:10:00,
2013-12-04 23:11:00,50.9,45.0,29.26,NW,315,1.6,2.2,80,0.00,,,0.00,meteobridge,2013-12-05 05:11:00,
2013-12-04 23:12:00,50.7,44.8,29.26,SW,225,0.0,1.6,80,0.00,,,0.00,meteobridge,2013-12-05 05:12:00,
2013-12-04 23:14:00,50.7,44.8,29.26,NW,315,2.2,2.2,80,0.00,,,0.00,meteobridge,2013-12-05 05:14:00,
2013-12-04 23:15:00,50.7,44.8,29.26,NW,315,4.5,4.5,80,0.00,,,0.00,meteobridge,2013-12-05 05:15:00,
2013-12-04 23:16:00,50.5,44.6,29.26,NW,315,1.6,4.5,80,0.00,,,0.00,meteobridge,2013-12-05 05:16:00,
2013-12-04 23:18:00,50.5,44.6,29.26,NW,315,1.6,3.1,80,0.00,,,0.00,meteobridge,2013-12-05 05:18:00,
2013-12-04 23:19:00,50.5,44.6,29.27,NE,45,1.6,3.1,80,0.00,,,0.00,meteobridge,2013-12-05 05:19:00,
2013-12-04 23:20:00,50.4,44.1,29.26,NW,315,6.0,6.0,79,0.00,,,0.00,meteobridge,2013-12-05 05:20:00,
2013-12-04 23:21:00,50.4,44.1,29.27,South,180,5.4,6.0,79,0.00,,,0.00,meteobridge,2013-12-05 05:21:00,
2013-12-04 23:22:00,50.4,44.1,29.27,NW,315,2.2,6.0,79,0.00,,,0.00,meteobridge,2013-12-05 05:22:00,
2013-12-04 23:25:00,50.2,43.5,29.27,NE,45,5.4,5.4,78,0.00,,,0.00,meteobridge,2013-12-05 05:25:00,
2013-12-04 23:26:00,50.2,43.5,29.27,NW,315,3.1,5.4,78,0.00,,,0.00,meteobridge,2013-12-05 05:26:00,
2013-12-04 23:27:00,50.0,43.7,29.27,North,0,5.4,5.4,79,0.00,,,0.00,meteobridge,2013-12-05 05:27:00,
2013-12-04 23:28:00,50.0,43.7,29.27,North,0,5.4,5.4,79,0.00,,,0.00,meteobridge,2013-12-05 05:28:00,
2013-12-04 23:31:00,50.0,43.7,29.27,NW,315,3.8,4.5,79,0.00,,,0.00,meteobridge,2013-12-05 05:31:00,
2013-12-04 23:32:00,50.0,43.7,29.27,NW,315,3.1,5.4,79,0.00,,,0.00,meteobridge,2013-12-05 05:32:00,
2013-12-04 23:33:00,50.0,43.7,29.27,NW,315,3.1,5.4,79,0.00,,,0.00,meteobridge,2013-12-05 05:33:00,
2013-12-04 23:34:00,50.0,43.7,29.27,South,180,4.5,4.5,79,0.00,,,0.00,meteobridge,2013-12-05 05:34:00,
2013-12-04 23:36:00,50.0,43.7,29.27,NW,315,6.0,6.0,79,0.00,,,0.00,meteobridge,2013-12-05 05:36:00,
2013-12-04 23:37:00,50.0,43.7,29.26,NW,315,3.1,6.0,79,0.00,,,0.00,meteobridge,2013-12-05 05:37:00,
2013-12-04 23:38:00,50.0,43.7,29.26,North,0,0.7,6.0,79,0.00,,,0.00,meteobridge,2013-12-05 05:38:00,
2013-12-04 23:39:00,50.0,43.7,29.26,North,0,1.6,3.1,79,0.00,,,0.00,meteobridge,2013-12-05 05:39:00,
2013-12-04 23:41:00,49.8,43.2,29.26,NE,45,5.4,6.0,78,0.00,,,0.00,meteobridge,2013-12-05 05:41:00,
2013-12-04 23:42:00,49.6,42.8,29.26,SE,135,2.2,4.5,77,0.00,,,0.00,meteobridge,2013-12-05 05:42:00,
2013-12-04 23:44:00,49.5,42.6,29.26,North,0,3.8,5.4,77,0.00,,,0.00,meteobridge,2013-12-05 05:44:00,
2013-12-04 23:45:00,49.5,42.6,29.26,North,0,3.8,5.4,77,0.00,,,0.00,meteobridge,2013-12-05 05:45:00,
2013-12-04 23:46:00,49.3,42.4,29.26,North,0,2.2,3.8,77,0.00,,,0.00,meteobridge,2013-12-05 05:46:00,
2013-12-04 23:50:00,48.9,42.1,29.26,North,0,4.5,5.4,77,0.00,,,0.00,meteobridge,2013-12-05 05:50:00,
2013-12-04 23:51:00,48.9,42.1,29.27,North,0,3.8,5.4,77,0.00,,,0.00,meteobridge,2013-12-05 05:51:00,
2013-12-04 23:53:00,48.6,41.7,29.27,NW,315,0.0,0.7,77,0.00,,,0.00,meteobridge,2013-12-05 05:53:00,
2013-12-04 23:55:00,48.4,41.5,29.28,NW,315,3.1,3.1,77,0.00,,,0.00,meteobridge,2013-12-05 05:55:00,
2013-12-04 23:56:00,48.4,41.9,29.28,North,0,0.7,3.1,78,0.00,,,0.00,meteobridge,2013-12-05 05:56:00,
2013-12-04 23:57:00,48.2,41.7,29.28,NNE,23,6.0,6.0,78,0.00,,,0.00,meteobridge,2013-12-05 05:57:00,
2013-12-04 23:59:00,48.2,41.7,29.28,North,0,3.1,6.0,78,0.00,,,0.00,meteobridge,2013-12-05 05:59:00,